Darstellungsparameter: Aktuell verwendete Einstellungen:
Skalierung der Graphiken ... ?
xyx+y,   Skalierungsfaktor:      Skalierung: Modus: x, Faktor: 1
Darstellungszeitraum ... ?
Vom - - bis: - -   Zeitraum: 17.11.2005 - 16.11.2008
Min/Max/Avg-Anzeige ... ?
Zeige MMA aktuell
Zeige MMA Monat
Zeige MMA alles
Zeige --A aktuell
Zeige --A Monat
Zeige --A alles
Keine MMA-Anzeige
MMA:
Average (ber die Originaldaten)
MMA-Basis: 17.04.2019 - 19.05.2019
Quicknavigation für Darstellung... ?
Tage:      1T, 2T, 3T, 5T -1T -2T -3T -5T +1T +2T +3T +5T
Wochen: 1W, 2W, 3W -1W -2W -3W +1W +2W +3W
Monate: 1M, 3M, 6M -1M -3M -6M +1M +3M +6M
Jahre:    1J, 3J, 5J, 10J -1J -3J -5J -10J +1J +3J +5J +10J
Nutze für die Darstellung ... ?
Originaldaten oder ...
Mittelwerte Minima Maxima auf...
Stundenbasis Tagesbasis Wochenbasis
Monatsbasis Jahresbasis      Datenbasis: Mittelwerte auf Tagesbasis
Darstellen als:
Statistik (Auto) Statistik J:M      Darstellung:
Zur Graphik,    zurück zur Übersicht aller Sensoren.
 
Tabellarische Datenbersicht: ?
 
Sensor: Nr:Datum:Temp:Abs-Feuchte:Windchill:Wind:
Aussen-T/F 1 17-11-2005 00:00:00 4.69231 C 4.87 g/m*3 4.69 C 0 km/h
2 18-11-2005 00:00:00 3.75903 C 4.75 g/m*3 3.76 C 0 km/h
3 19-11-2005 00:00:00 1.67431 C 4.45 g/m*3 1.67 C 0 km/h
4 20-11-2005 00:00:00 1.75625 C 4.65 g/m*3 1.76 C 0 km/h
5 21-11-2005 00:00:00 4.09236 C 5.57 g/m*3 4.09 C 0 km/h
6 22-11-2005 00:00:00 -0.87778 C 3.96 g/m*3 -0.88 C 0 km/h
7 23-11-2005 00:00:00 0.84861 C 4.11 g/m*3 0.85 C 0 km/h
8 24-11-2005 00:00:00 2.37778 C 4.63 g/m*3 2.38 C 0 km/h
9 25-11-2005 00:00:00 1.54167 C 3.59 g/m*3 1.54 C 0 km/h
10 26-11-2005 00:00:00 2.46111 C 3.28 g/m*3 2.46 C 0 km/h
11 27-11-2005 00:00:00 2.30979 C 4.39 g/m*3 2.31 C 0 km/h
12 28-11-2005 00:00:00 1.92847 C 4.78 g/m*3 1.93 C 0 km/h
13 29-11-2005 00:00:00 2.30694 C 4.43 g/m*3 2.31 C 0 km/h
14 30-11-2005 00:00:00 2.00069 C 4.01 g/m*3 2 C 0 km/h
15 01-12-2005 00:00:00 0.41875 C 3.53 g/m*3 0.42 C 0 km/h
16 02-12-2005 00:00:00 0.22153 C 3.38 g/m*3 0.22 C 0 km/h
17 03-12-2005 00:00:00 3.82708 C 5.01 g/m*3 3.83 C 0 km/h
18 04-12-2005 00:00:00 7.05417 C 6.74 g/m*3 7.05 C 0 km/h
19 05-12-2005 00:00:00 6.35208 C 5.78 g/m*3 6.35 C 0 km/h
20 06-12-2005 00:00:00 4.99583 C 5.15 g/m*3 5 C 0 km/h
21 07-12-2005 00:00:00 4.93706 C 5.56 g/m*3 4.94 C 0 km/h
22 08-12-2005 00:00:00 4.74653 C 5.18 g/m*3 4.75 C 0 km/h
23 09-12-2005 00:00:00 3.66458 C 5.09 g/m*3 3.66 C 0 km/h
24 10-12-2005 00:00:00 -0.92292 C 3.78 g/m*3 -0.92 C 0 km/h
25 11-12-2005 00:00:00 -2.30069 C 3.46 g/m*3 -2.3 C 0 km/h
Sensor: Nr:Datum:Temp:Abs-Feuchte:Windchill:Wind:
Aussen-T/F 26 12-12-2005 00:00:00 1.72847 C 4.76 g/m*3 1.73 C 0 km/h
27 13-12-2005 00:00:00 1.28472 C 4.91 g/m*3 1.28 C 0 km/h
28 14-12-2005 00:00:00 3.84028 C 5.78 g/m*3 3.84 C 0 km/h
29 15-12-2005 00:00:00 5.59167 C 5.53 g/m*3 5.59 C 0 km/h
30 16-12-2005 00:00:00 6.09861 C 5.31 g/m*3 6.1 C 0 km/h
31 17-12-2005 00:00:00 1.45035 C 3.8 g/m*3 1.45 C 0 km/h
32 18-12-2005 00:00:00 1.59861 C 3.96 g/m*3 1.6 C 0 km/h
33 19-12-2005 00:00:00 1.45417 C 4.2 g/m*3 1.45 C 0 km/h
34 20-12-2005 00:00:00 2.75347 C 4.64 g/m*3 2.75 C 0 km/h
35 21-12-2005 00:00:00 2.23194 C 4.34 g/m*3 2.23 C 0 km/h
36 22-12-2005 00:00:00 2.96875 C 5.07 g/m*3 2.97 C 0 km/h
37 23-12-2005 00:00:00 4.89653 C 5.59 g/m*3 4.9 C 0 km/h
38 24-12-2005 00:00:00 5.93264 C 5.56 g/m*3 5.93 C 0 km/h
39 25-12-2005 00:00:00 4.13958 C 5.2 g/m*3 4.14 C 0 km/h
40 26-12-2005 00:00:00 1.48403 C 4.21 g/m*3 1.48 C 0 km/h
41 27-12-2005 00:00:00 -1.47413 C 3.38 g/m*3 -1.47 C 0 km/h
42 28-12-2005 00:00:00 -1.48681 C 3.38 g/m*3 -1.49 C 0 km/h
43 29-12-2005 00:00:00 -2.85486 C 2.99 g/m*3 -2.85 C 0 km/h
44 30-12-2005 00:00:00 -3.14514 C 2.78 g/m*3 -3.15 C 0 km/h
45 31-12-2005 00:00:00 2.82361 C 4.93 g/m*3 2.82 C 0 km/h
46 01-01-2006 00:00:00 3.86319 C 5.09 g/m*3 3.86 C 0 km/h
47 02-01-2006 00:00:00 3.13125 C 4.93 g/m*3 3.13 C 0 km/h
48 03-01-2006 00:00:00 2.31597 C 4.43 g/m*3 2.32 C 0 km/h
49 04-01-2006 00:00:00 0.29583 C 3.73 g/m*3 0.3 C 0 km/h
50 05-01-2006 00:00:00 1.24306 C 3.66 g/m*3 1.24 C 0 km/h
Sensor: Nr:Datum:Temp:Abs-Feuchte:Windchill:Wind:
Aussen-T/F 51 06-01-2006 00:00:00 -0.25035 C 4 g/m*3 -0.25 C 0 km/h
52 07-01-2006 00:00:00 2.66181 C 4.44 g/m*3 2.66 C 0 km/h
53 08-01-2006 00:00:00 2.09653 C 3.9 g/m*3 2.1 C 0 km/h
54 09-01-2006 00:00:00 -2.41736 C 3.27 g/m*3 -2.42 C 0 km/h
55 10-01-2006 00:00:00 -1.51736 C 3.25 g/m*3 -1.52 C 0 km/h
56 11-01-2006 00:00:00 -1.95903 C 3.55 g/m*3 -1.96 C 0 km/h
57 12-01-2006 00:00:00 1.79583 C 5.01 g/m*3 1.8 C 0 km/h
58 13-01-2006 00:00:00 0.35972 C 3.83 g/m*3 0.36 C 0 km/h
59 14-01-2006 00:00:00 -3.27639 C 3.12 g/m*3 -3.28 C 0 km/h
60 15-01-2006 00:00:00 -4.27153 C 2.57 g/m*3 -4.27 C 0 km/h
61 16-01-2006 00:00:00 -4.78951 C 2.59 g/m*3 -4.79 C 0 km/h
62 17-01-2006 00:00:00 1.90278 C 4.54 g/m*3 1.9 C 0 km/h
63 18-01-2006 00:00:00 3.8125 C 5.08 g/m*3 3.81 C 0 km/h
64 19-01-2006 00:00:00 1.43403 C 4.72 g/m*3 1.43 C 0 km/h
65 20-01-2006 00:00:00 6.2375 C 6 g/m*3 6.24 C 0 km/h
66 21-01-2006 00:00:00 4.58889 C 5.24 g/m*3 4.59 C 0 km/h
67 22-01-2006 00:00:00 1.08125 C 3.94 g/m*3 1.08 C 0 km/h
68 23-01-2006 00:00:00 -5.20417 C 1.94 g/m*3 -5.2 C 0 km/h
69 24-01-2006 00:00:00 -5.83542 C 1.92 g/m*3 -5.84 C 0 km/h
70 25-01-2006 00:00:00 -3.80833 C 2.61 g/m*3 -3.81 C 0 km/h
71 26-01-2006 00:00:00 -2.11818 C 3.16 g/m*3 -2.12 C 0 km/h
72 27-01-2006 00:00:00 -5.44236 C 2.23 g/m*3 -5.44 C 0 km/h
73 28-01-2006 00:00:00 -6.67986 C 2.22 g/m*3 -6.68 C 0 km/h
74 29-01-2006 00:00:00 -6.29792 C 2.35 g/m*3 -6.3 C 0 km/h
75 30-01-2006 00:00:00 -5.95139 C 2.43 g/m*3 -5.95 C 0 km/h
Sensor: Nr:Datum:Temp:Abs-Feuchte:Windchill:Wind:
Aussen-T/F 76 31-01-2006 00:00:00 -3.30486 C 3.12 g/m*3 -3.3 C 0 km/h
77 01-02-2006 00:00:00 -5.48333 C 2.52 g/m*3 -5.48 C 0 km/h
78 02-02-2006 00:00:00 -6.16667 C 2.42 g/m*3 -6.17 C 0 km/h
79 03-02-2006 00:00:00 -3.79931 C 2.72 g/m*3 -3.8 C 0 km/h
80 04-02-2006 00:00:00 -0.85208 C 3.61 g/m*3 -0.85 C 0 km/h
81 05-02-2006 00:00:00 -0.32867 C 3.81 g/m*3 -0.33 C 0 km/h
82 06-02-2006 00:00:00 1.50903 C 4.7 g/m*3 1.51 C 0 km/h
83 07-02-2006 00:00:00 3.74861 C 4.89 g/m*3 3.75 C 0 km/h
84 08-02-2006 00:00:00 3.70208 C 4.95 g/m*3 3.7 C 0 km/h
85 09-02-2006 00:00:00 2.29722 C 4.03 g/m*3 2.3 C 0 km/h
86 10-02-2006 00:00:00 2.10979 C 4.24 g/m*3 2.11 C 0 km/h
87 11-02-2006 00:00:00 1.21458 C 4.02 g/m*3 1.21 C 0 km/h
88 12-02-2006 00:00:00 1.60694 C 3.21 g/m*3 1.61 C 0 km/h
89 13-02-2006 00:00:00 2.60764 C 2.97 g/m*3 2.61 C 0 km/h
90 14-02-2006 00:00:00 4.21597 C 4.26 g/m*3 4.22 C 0 km/h
91 15-02-2006 00:00:00 6.17832 C 5.78 g/m*3 6.18 C 0 km/h
92 16-02-2006 00:00:00 7.31736 C 6.23 g/m*3 7.32 C 0 km/h
93 17-02-2006 00:00:00 6.0625 C 5.09 g/m*3 6.06 C 0 km/h
94 18-02-2006 00:00:00 5.81389 C 5.1 g/m*3 5.81 C 0 km/h
95 19-02-2006 00:00:00 7.08472 C 4.96 g/m*3 7.08 C 0 km/h
96 20-02-2006 00:00:00 4.17917 C 5.28 g/m*3 4.18 C 0 km/h
97 21-02-2006 00:00:00 3.04444 C 5.09 g/m*3 3.04 C 0 km/h
98 22-02-2006 00:00:00 2.47639 C 3.64 g/m*3 2.48 C 0 km/h
99 23-02-2006 00:00:00 1.36736 C 2.72 g/m*3 1.37 C 0 km/h
100 24-02-2006 00:00:00 2.05972 C 2.88 g/m*3 2.06 C 0 km/h
Sensor: Nr:Datum:Temp:Abs-Feuchte:Windchill:Wind:
Aussen-T/F 101 25-02-2006 00:00:00 0.46364 C 2.5 g/m*3 0.46 C 0 km/h
102 26-02-2006 00:00:00 -1.08472 C 2.46 g/m*3 -1.08 C 0 km/h
103 27-02-2006 00:00:00 -1.57569 C 3.19 g/m*3 -1.58 C 0 km/h
104 28-02-2006 00:00:00 1.56806 C 4.03 g/m*3 1.57 C 0 km/h
105 01-03-2006 00:00:00 0.10556 C 3.05 g/m*3 0.11 C 0 km/h
106 02-03-2006 00:00:00 -0.25347 C 2.76 g/m*3 -0.25 C 0 km/h
107 03-03-2006 00:00:00 -0.44722 C 3.59 g/m*3 -0.45 C 0 km/h
108 04-03-2006 00:00:00 -0.87361 C 3.51 g/m*3 -0.87 C 0 km/h
109 05-03-2006 00:00:00 -1.41944 C 3.13 g/m*3 -1.42 C 0 km/h
110 06-03-2006 00:00:00 1.2125 C 3.34 g/m*3 1.21 C 0 km/h
111 07-03-2006 00:00:00 2.11748 C 3.25 g/m*3 2.12 C 0 km/h
112 08-03-2006 00:00:00 0.99722 C 3.99 g/m*3 1 C 0 km/h
113 09-03-2006 00:00:00 8.02431 C 6.63 g/m*3 8.02 C 0 km/h
114 10-03-2006 00:00:00 5.79931 C 4.67 g/m*3 5.8 C 0 km/h
115 11-03-2006 00:00:00 1.7 C 4.29 g/m*3 1.7 C 0 km/h
116 12-03-2006 00:00:00 -2.45556 C 1.99 g/m*3 -2.46 C 0 km/h
117 13-03-2006 00:00:00 -1.82553 C 2.07 g/m*3 -1.83 C 0 km/h
118 14-03-2006 00:00:00 -0.25972 C 2.33 g/m*3 -0.26 C 0 km/h
119 15-03-2006 00:00:00 1.33333 C 2.81 g/m*3 1.33 C 0 km/h
120 16-03-2006 00:00:00 2.07292 C 2.65 g/m*3 2.07 C 0 km/h
121 17-03-2006 00:00:00 2.75175 C 3.25 g/m*3 2.75 C 0 km/h
122 18-03-2006 00:00:00 3.75069 C 3.43 g/m*3 3.75 C 0 km/h
123 19-03-2006 00:00:00 4.88056 C 3.93 g/m*3 4.88 C 0 km/h
124 20-03-2006 00:00:00 4.13542 C 4.32 g/m*3 4.14 C 0 km/h
125 21-03-2006 00:00:00 3.42222 C 5.01 g/m*3 3.42 C 0 km/h
Sensor: Nr:Datum:Temp:Abs-Feuchte:Windchill:Wind:
Aussen-T/F 126 22-03-2006 00:00:00 4.52708 C 3.53 g/m*3 4.53 C 0 km/h
127 23-03-2006 00:00:00 4.85694 C 2.84 g/m*3 4.86 C 0 km/h
128 24-03-2006 00:00:00 5.28125 C 5.03 g/m*3 5.28 C 0 km/h
129 25-03-2006 00:00:00 12.04861 C 7.85 g/m*3 12.05 C 0 km/h
130 26-03-2006 00:00:00 15.02826 C 9.07 g/m*3 15.03 C 0 km/h
131 27-03-2006 00:00:00 14.96319 C 8.44 g/m*3 14.96 C 0 km/h
132 28-03-2006 00:00:00 11.67273 C 6.09 g/m*3 11.67 C 0 km/h
133 29-03-2006 00:00:00 9.22222 C 5.78 g/m*3 9.22 C 0 km/h
134 30-03-2006 00:00:00 11.31181 C 7.59 g/m*3 11.31 C 0 km/h
135 31-03-2006 00:00:00 12.225 C 7.78 g/m*3 12.23 C 0 km/h
136 01-04-2006 00:00:00 10.95 C 7.33 g/m*3 10.95 C 0 km/h
137 02-04-2006 00:00:00 10.30347 C 6.71 g/m*3 10.3 C 0 km/h
138 03-04-2006 00:00:00 9.04444 C 5.27 g/m*3 9.04 C 0 km/h
139 04-04-2006 00:00:00 7.89306 C 4.31 g/m*3 7.89 C 0 km/h
140 05-04-2006 00:00:00 5.38542 C 3.69 g/m*3 5.39 C 0 km/h
141 06-04-2006 00:00:00 5.62847 C 3.78 g/m*3 5.63 C 0 km/h
142 07-04-2006 00:00:00 7.78112 C 3.69 g/m*3 7.78 C 0 km/h
143 08-04-2006 00:00:00 8.88681 C 3.81 g/m*3 8.89 C 0 km/h
144 09-04-2006 00:00:00 9.54931 C 4.04 g/m*3 9.55 C 0 km/h
145 10-04-2006 00:00:00 7.99444 C 3.73 g/m*3 7.99 C 0 km/h
146 11-04-2006 00:00:00 6.56528 C 3.66 g/m*3 6.57 C 0 km/h
147 12-04-2006 00:00:00 7.39167 C 5.46 g/m*3 7.39 C 0 km/h
148 13-04-2006 00:00:00 7.97014 C 5.79 g/m*3 7.97 C 0 km/h
149 14-04-2006 00:00:00 11.28681 C 7.12 g/m*3 11.29 C 0 km/h
150 15-04-2006 00:00:00 12.20486 C 7.42 g/m*3 12.2 C 0 km/h
Sensor: Nr:Datum:Temp:Abs-Feuchte:Windchill:Wind:
Aussen-T/F 151 16-04-2006 00:00:00 12.37986 C 7.33 g/m*3 12.38 C 0 km/h
152 17-04-2006 00:00:00 11.4 C 7.54 g/m*3 11.4 C 0 km/h
153 18-04-2006 00:00:00 10.37986 C 6.23 g/m*3 10.38 C 0 km/h
154 19-04-2006 00:00:00 11.18264 C 5.43 g/m*3 11.18 C 0 km/h
155 20-04-2006 00:00:00 12.16528 C 5.8 g/m*3 12.17 C 0 km/h
156 21-04-2006 00:00:00 14.47622 C 6.36 g/m*3 14.48 C 0 km/h
157 22-04-2006 00:00:00 13.62014 C 7.04 g/m*3 13.62 C 0 km/h
158 23-04-2006 00:00:00 10.87639 C 6.01 g/m*3 10.88 C 0 km/h
159 24-04-2006 00:00:00 15.40833 C 6.53 g/m*3 15.41 C 0 km/h
160 25-04-2006 00:00:00 17.60972 C 7.26 g/m*3 17.61 C 0 km/h
161 26-04-2006 00:00:00 15.22778 C 10.04 g/m*3 15.23 C 0 km/h
162 27-04-2006 00:00:00 12.53611 C 8.58 g/m*3 12.54 C 0 km/h
163 28-04-2006 00:00:00 10.85 C 5.75 g/m*3 10.85 C 0 km/h
164 29-04-2006 00:00:00 7.53194 C 4.57 g/m*3 7.53 C 0 km/h
165 30-04-2006 00:00:00 6.51389 C 5.5 g/m*3 6.51 C 0 km/h
166 01-05-2006 00:00:00 8.32727 C 6.64 g/m*3 8.33 C 0 km/h
167 02-05-2006 00:00:00 15.08819 C 7.52 g/m*3 15.09 C 0 km/h
168 03-05-2006 00:00:00 18.44931 C 8.16 g/m*3 18.45 C 0 km/h
169 04-05-2006 00:00:00 19.40278 C 8.14 g/m*3 19.4 C 0 km/h
170 05-05-2006 00:00:00 20.21389 C 7.05 g/m*3 20.21 C 0 km/h
171 06-05-2006 00:00:00 18.90069 C 6.51 g/m*3 18.9 C 0 km/h
172 07-05-2006 00:00:00 19.45486 C 5.48 g/m*3 19.45 C 0 km/h
173 08-05-2006 00:00:00 18.61667 C 6.18 g/m*3 18.62 C 0 km/h
174 09-05-2006 00:00:00 18.27431 C 6.73 g/m*3 18.27 C 0 km/h
175 10-05-2006 00:00:00 18.83194 C 8.46 g/m*3 18.83 C 0 km/h
Sensor: Nr:Datum:Temp:Abs-Feuchte:Windchill:Wind:
Aussen-T/F 176 11-05-2006 00:00:00 19.10629 C 6.83 g/m*3 19.11 C 0 km/h
177 12-05-2006 00:00:00 18.74583 C 6.68 g/m*3 18.75 C 0 km/h
178 13-05-2006 00:00:00 16.36944 C 9.54 g/m*3 16.37 C 0 km/h
179 14-05-2006 00:00:00 15.00278 C 8.64 g/m*3 15 C 0 km/h
180 15-05-2006 00:00:00 16.62986 C 8.78 g/m*3 16.63 C 0 km/h
181 16-05-2006 00:00:00 19.50347 C 9.69 g/m*3 19.5 C 0 km/h
182 17-05-2006 00:00:00 17.91736 C 9.73 g/m*3 17.92 C 0 km/h
183 18-05-2006 00:00:00 18.00347 C 10.26 g/m*3 18 C 0 km/h
184 19-05-2006 00:00:00 14.40347 C 8.4 g/m*3 14.4 C 0 km/h
185 20-05-2006 00:00:00 12.56853 C 7.83 g/m*3 12.57 C 0 km/h
186 21-05-2006 00:00:00 15.07431 C 7.61 g/m*3 15.07 C 0 km/h
187 22-05-2006 00:00:00 15.73472 C 8.94 g/m*3 15.73 C 0 km/h
188 23-05-2006 00:00:00 12.35556 C 6.68 g/m*3 12.36 C 0 km/h
189 24-05-2006 00:00:00 10.91667 C 6.68 g/m*3 10.92 C 0 km/h
190 25-05-2006 00:00:00 11.81736 C 8.3 g/m*3 11.82 C 0 km/h
191 26-05-2006 00:00:00 13.58681 C 10.19 g/m*3 13.59 C 0 km/h
192 27-05-2006 00:00:00 16.75972 C 10.96 g/m*3 16.76 C 0 km/h
193 28-05-2006 00:00:00 16.35 C 8.5 g/m*3 16.35 C 0 km/h
194 29-05-2006 00:00:00 12.47431 C 7.16 g/m*3 12.47 C 0 km/h
195 30-05-2006 00:00:00 9.24792 C 6.53 g/m*3 9.25 C 0 km/h
196 31-05-2006 00:00:00 9.13776 C 6.51 g/m*3 9.14 C 0 km/h
197 01-06-2006 00:00:00 9.43819 C 6.58 g/m*3 9.44 C 0 km/h
198 02-06-2006 00:00:00 13.68056 C 6.85 g/m*3 13.68 C 0 km/h
199 03-06-2006 00:00:00 13.95278 C 7.53 g/m*3 13.95 C 0 km/h
200 04-06-2006 00:00:00 14.34514 C 6.93 g/m*3 14.35 C 0 km/h
Sensor: Nr:Datum:Temp:Abs-Feuchte:Windchill:Wind:
Aussen-T/F 201 05-06-2006 00:00:00 14.45764 C 6.07 g/m*3 14.46 C 0 km/h
202 06-06-2006 00:00:00 14.33472 C 6.42 g/m*3 14.33 C 0 km/h
203 07-06-2006 00:00:00 16.37431 C 7.03 g/m*3 16.37 C 0 km/h
204 08-06-2006 00:00:00 19.21736 C 7.78 g/m*3 19.22 C 0 km/h
205 09-06-2006 00:00:00 21.24306 C 8.18 g/m*3 21.24 C 0 km/h
206 10-06-2006 00:00:00 22.62098 C 8.87 g/m*3 22.62 C 0 km/h
207 11-06-2006 00:00:00 23.39653 C 8.75 g/m*3 23.4 C 0 km/h
208 12-06-2006 00:00:00 23.62431 C 8.32 g/m*3 23.62 C 0 km/h
209 13-06-2006 00:00:00 25.05625 C 9.6 g/m*3 25.06 C 0 km/h
210 14-06-2006 00:00:00 25.71667 C 10.84 g/m*3 25.72 C 0 km/h
211 15-06-2006 00:00:00 22.39653 C 13.02 g/m*3 22.4 C 0 km/h
212 16-06-2006 00:00:00 19.19792 C 9.2 g/m*3 19.2 C 0 km/h
213 17-06-2006 00:00:00 19.55139 C 8.62 g/m*3 19.55 C 0 km/h
214 18-06-2006 00:00:00 22.94931 C 11.05 g/m*3 22.95 C 0 km/h
215 19-06-2006 00:00:00 22.18819 C 13.64 g/m*3 22.19 C 0 km/h
216 20-06-2006 00:00:00 22.95524 C 12.6 g/m*3 22.96 C 0 km/h
217 21-06-2006 00:00:00 22.61597 C 10.2 g/m*3 22.62 C 0 km/h
218 22-06-2006 00:00:00 18.87222 C 7.76 g/m*3 18.87 C 0 km/h
219 23-06-2006 00:00:00 18.88681 C 7.57 g/m*3 18.89 C 0 km/h
220 24-06-2006 00:00:00 22.39792 C 8.91 g/m*3 22.4 C 0 km/h
221 25-06-2006 00:00:00 23.4375 C 12.58 g/m*3 23.44 C 0 km/h
222 26-06-2006 00:00:00 21.99097 C 12.21 g/m*3 21.99 C 0 km/h
223 27-06-2006 00:00:00 19.64028 C 11.66 g/m*3 19.64 C 0 km/h
224 28-06-2006 00:00:00 21.16111 C 10.45 g/m*3 21.16 C 0 km/h
225 29-06-2006 00:00:00 21.06319 C 11.36 g/m*3 21.06 C 0 km/h
Sensor: Nr:Datum:Temp:Abs-Feuchte:Windchill:Wind:
Aussen-T/F 226 30-06-2006 00:00:00 23.44545 C 11.46 g/m*3 23.45 C 0 km/h
227 01-07-2006 00:00:00 24.6875 C 10.22 g/m*3 24.69 C 0 km/h
228 02-07-2006 00:00:00 25.27986 C 9.46 g/m*3 25.28 C 0 km/h
229 03-07-2006 00:00:00 25.22083 C 8.68 g/m*3 25.22 C 0 km/h
230 04-07-2006 00:00:00 26.70278 C 10.21 g/m*3 26.7 C 0 km/h
231 05-07-2006 00:00:00 26.28681 C 12.37 g/m*3 26.29 C 0 km/h
232 06-07-2006 00:00:00 24.85278 C 12.2 g/m*3 24.85 C 0 km/h
233 07-07-2006 00:00:00 22.81528 C 12.32 g/m*3 22.82 C 0 km/h
234 08-07-2006 00:00:00 22.68958 C 13.01 g/m*3 22.69 C 0 km/h
235 09-07-2006 00:00:00 23.57778 C 11.52 g/m*3 23.58 C 0 km/h
236 10-07-2006 00:00:00 25.03147 C 10.68 g/m*3 25.03 C 0 km/h
237 11-07-2006 00:00:00 23.91181 C 13.08 g/m*3 23.91 C 0 km/h
238 12-07-2006 00:00:00 25.55625 C 13.47 g/m*3 25.56 C 0 km/h
239 13-07-2006 00:00:00 26.02986 C 13.12 g/m*3 26.03 C 0 km/h
240 14-07-2006 00:00:00 24.71389 C 8.97 g/m*3 24.71 C 0 km/h
241 15-07-2006 00:00:00 23.42431 C 7.65 g/m*3 23.42 C 0 km/h
242 16-07-2006 00:00:00 24.37639 C 8.1 g/m*3 24.38 C 0 km/h
243 17-07-2006 00:00:00 25.54792 C 7.82 g/m*3 25.55 C 0 km/h
244 18-07-2006 00:00:00 26.24722 C 8.99 g/m*3 26.25 C 0 km/h
245 19-07-2006 00:00:00 27.43125 C 9.1 g/m*3 27.43 C 0 km/h
246 20-07-2006 00:00:00 28.02797 C 9.35 g/m*3 28.03 C 0 km/h
247 21-07-2006 00:00:00 28.09306 C 11.49 g/m*3 28.09 C 0 km/h
248 22-07-2006 00:00:00 24.58125 C 12.7 g/m*3 24.58 C 0 km/h
249 23-07-2006 00:00:00 26.09375 C 13.17 g/m*3 26.09 C 0 km/h
250 24-07-2006 00:00:00 27.19236 C 11.15 g/m*3 27.19 C 0 km/h
Sensor: Nr:Datum:Temp:Abs-Feuchte:Windchill:Wind:
Aussen-T/F 251 25-07-2006 00:00:00 28.08194 C 10.78 g/m*3 28.08 C 0 km/h
252 26-07-2006 00:00:00 28.25208 C 11.87 g/m*3 28.25 C 0 km/h
253 27-07-2006 00:00:00 25.83403 C 14.1 g/m*3 25.83 C 0 km/h
254 28-07-2006 00:00:00 22.68264 C 14.34 g/m*3 22.68 C 0 km/h
255 29-07-2006 00:00:00 24.07431 C 13.52 g/m*3 24.07 C 0 km/h
256 30-07-2006 00:00:00 24.48392 C 12.14 g/m*3 24.48 C 0 km/h
257 31-07-2006 00:00:00 23.2375 C 10.23 g/m*3 23.24 C 0 km/h
258 01-08-2006 00:00:00 20.05625 C 10.27 g/m*3 20.06 C 0 km/h
259 02-08-2006 00:00:00 16.51667 C 9.93 g/m*3 16.52 C 0 km/h
260 03-08-2006 00:00:00 15.56111 C 9.83 g/m*3 15.56 C 0 km/h
261 04-08-2006 00:00:00 19.03056 C 10.44 g/m*3 19.03 C 0 km/h
262 05-08-2006 00:00:00 20.59514 C 10.71 g/m*3 20.6 C 0 km/h
263 06-08-2006 00:00:00 21.40694 C 10.86 g/m*3 21.41 C 0 km/h
264 07-08-2006 00:00:00 21.93056 C 10.07 g/m*3 21.93 C 0 km/h
265 08-08-2006 00:00:00 19.79583 C 9.89 g/m*3 19.8 C 0 km/h
266 09-08-2006 00:00:00 19.08322 C 9.32 g/m*3 19.08 C 0 km/h
267 10-08-2006 00:00:00 15.04792 C 9.68 g/m*3 15.05 C 0 km/h
268 11-08-2006 00:00:00 14.23611 C 9.74 g/m*3 14.24 C 0 km/h
269 12-08-2006 00:00:00 15.08958 C 8.69 g/m*3 15.09 C 0 km/h
270 13-08-2006 00:00:00 14.64514 C 9.18 g/m*3 14.65 C 0 km/h
271 14-08-2006 00:00:00 14.16319 C 9.66 g/m*3 14.16 C 0 km/h
272 15-08-2006 00:00:00 17.63333 C 10.27 g/m*3 17.63 C 0 km/h
273 16-08-2006 00:00:00 17.65 C 10.87 g/m*3 17.65 C 0 km/h
274 17-08-2006 00:00:00 20.9 C 11.79 g/m*3 20.9 C 0 km/h
275 18-08-2006 00:00:00 19.10208 C 11.74 g/m*3 19.1 C 0 km/h
Sensor: Nr:Datum:Temp:Abs-Feuchte:Windchill:Wind:
Aussen-T/F 276 19-08-2006 00:00:00 18.77343 C 11.44 g/m*3 18.77 C 0 km/h
277 20-08-2006 00:00:00 18.10972 C 10.83 g/m*3 18.11 C 0 km/h
278 21-08-2006 00:00:00 16.97292 C 10.27 g/m*3 16.97 C 0 km/h
279 22-08-2006 00:00:00 16.96389 C 10.28 g/m*3 16.96 C 0 km/h
280 23-08-2006 00:00:00 17.71319 C 10.25 g/m*3 17.71 C 0 km/h
281 24-08-2006 00:00:00 16.95139 C 10.55 g/m*3 16.95 C 0 km/h
282 25-08-2006 00:00:00 16.57778 C 11 g/m*3 16.58 C 0 km/h
283 26-08-2006 00:00:00 16.86528 C 10.55 g/m*3 16.87 C 0 km/h
284 27-08-2006 00:00:00 15.83681 C 10.94 g/m*3 15.84 C 0 km/h
285 28-08-2006 00:00:00 13.83264 C 9.97 g/m*3 13.83 C 0 km/h
286 29-08-2006 00:00:00 12.56713 C 8.65 g/m*3 12.57 C 0 km/h
287 30-08-2006 00:00:00 13.16111 C 9.07 g/m*3 13.16 C 0 km/h
288 31-08-2006 00:00:00 15.10417 C 8.8 g/m*3 15.1 C 0 km/h
289 01-09-2006 00:00:00 20.10139 C 9.87 g/m*3 20.1 C 0 km/h
290 02-09-2006 00:00:00 20.75 C 11 g/m*3 20.75 C 0 km/h
291 03-09-2006 00:00:00 21.75069 C 12.12 g/m*3 21.75 C 0 km/h
292 04-09-2006 00:00:00 22.06389 C 10.38 g/m*3 22.06 C 0 km/h
293 05-09-2006 00:00:00 19.96458 C 11.3 g/m*3 19.96 C 0 km/h
294 06-09-2006 00:00:00 21.68819 C 12.31 g/m*3 21.69 C 0 km/h
295 07-09-2006 00:00:00 19.05694 C 11.44 g/m*3 19.06 C 0 km/h
296 08-09-2006 00:00:00 16.55874 C 8.04 g/m*3 16.56 C 0 km/h
297 09-09-2006 00:00:00 16.56458 C 8.18 g/m*3 16.56 C 0 km/h
298 10-09-2006 00:00:00 18.675 C 9.16 g/m*3 18.68 C 0 km/h
299 11-09-2006 00:00:00 20.64722 C 11.18 g/m*3 20.65 C 0 km/h
300 12-09-2006 00:00:00 22.28889 C 12.16 g/m*3 22.29 C 0 km/h
Sensor: Nr:Datum:Temp:Abs-Feuchte:Windchill:Wind:
Aussen-T/F 301 13-09-2006 00:00:00 22.18819 C 11.95 g/m*3 22.19 C 0 km/h
302 14-09-2006 00:00:00 21.21806 C 11.23 g/m*3 21.22 C 0 km/h
303 15-09-2006 00:00:00 21.27273 C 10.28 g/m*3 21.27 C 0 km/h
304 16-09-2006 00:00:00 21.06759 C 11.67 g/m*3 21.07 C 0 km/h
305 17-09-2006 00:00:00 18.62986 C 12.65 g/m*3 18.63 C 0 km/h
306 18-09-2006 00:00:00 17.15903 C 12.29 g/m*3 17.16 C 0 km/h
307 19-09-2006 00:00:00 16.75278 C 10.65 g/m*3 16.75 C 0 km/h
308 20-09-2006 00:00:00 16.65139 C 9.61 g/m*3 16.65 C 0 km/h
309 21-09-2006 00:00:00 18.26806 C 10.43 g/m*3 18.27 C 0 km/h
310 22-09-2006 00:00:00 20.87413 C 10.57 g/m*3 20.87 C 0 km/h
311 23-09-2006 00:00:00 20.17361 C 11.42 g/m*3 20.17 C 0 km/h
312 24-09-2006 00:00:00 21.00903 C 11.38 g/m*3 21.01 C 0 km/h
313 25-09-2006 00:00:00 18.50486 C 11.18 g/m*3 18.5 C 0 km/h
314 26-09-2006 00:00:00 17.03056 C 11.32 g/m*3 17.03 C 0 km/h
315 27-09-2006 00:00:00 17.04444 C 10.2 g/m*3 17.04 C 0 km/h
316 28-09-2006 00:00:00 16.01042 C 9.81 g/m*3 16.01 C 0 km/h
317 29-09-2006 00:00:00 17.325 C 10.7 g/m*3 17.33 C 0 km/h
318 30-09-2006 00:00:00 17.09583 C 10.68 g/m*3 17.1 C 0 km/h
319 01-10-2006 00:00:00 17.24406 C 11.46 g/m*3 17.24 C 0 km/h
320 02-10-2006 00:00:00 15.91042 C 9.59 g/m*3 15.91 C 0 km/h
321 03-10-2006 00:00:00 13.2126 C 10.47 g/m*3 13.21 C 0 km/h
322 04-10-2006 00:00:00 13.01961 C 8.62 g/m*3 13.02 C 0 km/h
323 05-10-2006 00:00:00 12.97647 C 7.92 g/m*3 12.98 C 0 km/h
324 06-10-2006 00:00:00 15.82353 C 9.57 g/m*3 15.82 C 0 km/h
325 07-10-2006 00:00:00 14.25769 C 8.26 g/m*3 14.26 C 0 km/h
Sensor: Nr:Datum:Temp:Abs-Feuchte:Windchill:Wind:
Aussen-T/F 326 08-10-2006 00:00:00 11.08235 C 7.49 g/m*3 11.08 C 0 km/h
327 09-10-2006 00:00:00 12.00192 C 8.16 g/m*3 12 C 0 km/h
328 10-10-2006 00:00:00 15.38824 C 9.83 g/m*3 15.39 C 0 km/h
329 11-10-2006 00:00:00 14.37885 C 9.66 g/m*3 14.38 C 0 km/h
330 12-10-2006 00:00:00 15.54118 C 10.53 g/m*3 15.54 C 0 km/h
331 13-10-2006 00:00:00 16.11765 C 11.21 g/m*3 16.12 C 0 km/h
332 14-10-2006 00:00:00 14.12115 C 9.1 g/m*3 14.12 C 0 km/h
333 15-10-2006 00:00:00 12.41569 C 8.17 g/m*3 12.42 C 0 km/h
334 16-10-2006 00:00:00 9.56154 C 7.1 g/m*3 9.56 C 0 km/h
335 17-10-2006 00:00:00 9.22745 C 7.11 g/m*3 9.23 C 0 km/h
336 18-10-2006 00:00:00 11.90769 C 8.05 g/m*3 11.91 C 0 km/h
337 19-10-2006 00:00:00 13.41961 C 9.54 g/m*3 13.42 C 0 km/h
338 20-10-2006 00:00:00 15.83725 C 9.91 g/m*3 15.84 C 0 km/h
339 21-10-2006 00:00:00 14.08553 C 10.16 g/m*3 14.09 C 0 km/h
340 22-10-2006 00:00:00 15.405 C 9.54 g/m*3 15.41 C 0 km/h
341 23-10-2006 00:00:00 17.22 C 11.01 g/m*3 17.22 C 0 km/h
342 24-10-2006 00:00:00 14.19167 C 9.57 g/m*3 14.19 C 0 km/h
343 25-10-2006 00:00:00 12.59167 C 8.45 g/m*3 12.59 C 0 km/h
344 26-10-2006 00:00:00 16.50583 C 9.43 g/m*3 16.51 C 0 km/h
345 27-10-2006 00:00:00 17.075 C 10.44 g/m*3 17.08 C 0 km/h
346 28-10-2006 00:00:00 15.02083 C 10.11 g/m*3 15.02 C 0 km/h
347 29-10-2006 00:00:00 15.9896 C 8.79 g/m*3 15.99 C 0 km/h
348 30-10-2006 00:00:00 12.1575 C 7.78 g/m*3 12.16 C 0 km/h
349 31-10-2006 00:00:00 10.23529 C 7.15 g/m*3 10.24 C 0 km/h
350 01-11-2006 00:00:00 7.77167 C 4.9 g/m*3 7.77 C 0 km/h
Sensor: Nr:Datum:Temp:Abs-Feuchte:Windchill:Wind:
Aussen-T/F 351 02-11-2006 00:00:00 3.03 C 5.06 g/m*3 3.03 C 0 km/h
352 03-11-2006 00:00:00 5.84333 C 5.93 g/m*3 5.84 C 0 km/h
353 04-11-2006 00:00:00 8.15833 C 6.41 g/m*3 8.16 C 0 km/h
354 05-11-2006 00:00:00 9.14833 C 6.17 g/m*3 9.15 C 0 km/h
355 06-11-2006 00:00:00 9.06833 C 6.39 g/m*3 9.07 C 0 km/h
356 07-11-2006 00:00:00 7.04083 C 6.11 g/m*3 7.04 C 0 km/h
357 08-11-2006 00:00:00 7.96417 C 6.49 g/m*3 7.96 C 0 km/h
358 09-11-2006 00:00:00 9.81917 C 6.62 g/m*3 9.82 C 0 km/h
359 10-11-2006 00:00:00 5.04917 C 5.59 g/m*3 5.05 C 0 km/h
360 11-11-2006 00:00:00 6.26667 C 6.03 g/m*3 6.27 C 0 km/h
361 12-11-2006 00:00:00 7.62353 C 5.75 g/m*3 7.62 C 0 km/h
362 13-11-2006 00:00:00 8.9025 C 7.09 g/m*3 8.9 C 0 km/h
363 14-11-2006 00:00:00 12.84083 C 9.06 g/m*3 12.84 C 0 km/h
364 15-11-2006 00:00:00 12.90167 C 8.11 g/m*3 12.9 C 0 km/h
365 16-11-2006 00:00:00 13.12 C 7.88 g/m*3 13.12 C 0 km/h
366 17-11-2006 00:00:00 12.54333 C 8.13 g/m*3 12.54 C 0 km/h
367 18-11-2006 00:00:00 9.73917 C 6.92 g/m*3 9.74 C 0 km/h
368 19-11-2006 00:00:00 7.74083 C 7.39 g/m*3 7.74 C 0 km/h
369 20-11-2006 00:00:00 6.5725 C 5.52 g/m*3 6.57 C 0 km/h
370 21-11-2006 00:00:00 8.63583 C 6.49 g/m*3 8.64 C 0 km/h
371 22-11-2006 00:00:00 6.01833 C 5.31 g/m*3 6.02 C 0 km/h
372 23-11-2006 00:00:00 9.36083 C 7.72 g/m*3 9.36 C 0 km/h
373 24-11-2006 00:00:00 10.1775 C 8.17 g/m*3 10.18 C 0 km/h
374 25-11-2006 00:00:00 14.79583 C 7.59 g/m*3 14.8 C 0 km/h
375 26-11-2006 00:00:00 10.72917 C 7.46 g/m*3 10.73 C 0 km/h
Sensor: Nr:Datum:Temp:Abs-Feuchte:Windchill:Wind:
Aussen-T/F 376 27-11-2006 00:00:00 8.08083 C 7.39 g/m*3 8.08 C 0 km/h
377 28-11-2006 00:00:00 7.2775 C 6.92 g/m*3 7.28 C 0 km/h
378 29-11-2006 00:00:00 7.40583 C 7.46 g/m*3 7.41 C 0 km/h
379 30-11-2006 00:00:00 6.29167 C 6.41 g/m*3 6.29 C 0 km/h
380 01-12-2006 00:00:00 5.935 C 6.4 g/m*3 5.94 C 0 km/h
381 02-12-2006 00:00:00 4.37083 C 6.16 g/m*3 4.37 C 0 km/h
382 03-12-2006 00:00:00 10.00583 C 6.96 g/m*3 10.01 C 0 km/h
383 04-12-2006 00:00:00 10.05042 C 6.32 g/m*3 10.05 C 0 km/h
384 05-12-2006 00:00:00 14.25917 C 7.5 g/m*3 14.26 C 0 km/h
385 06-12-2006 00:00:00 10.42667 C 6.11 g/m*3 10.43 C 0 km/h
386 07-12-2006 00:00:00 8.7025 C 5.3 g/m*3 8.7 C 0 km/h
387 08-12-2006 00:00:00 10.0975 C 6.14 g/m*3 10.1 C 0 km/h
388 09-12-2006 00:00:00 7.6075 C 4.91 g/m*3 7.61 C 0 km/h
389 10-12-2006 00:00:00 5.27833 C 4.83 g/m*3 5.28 C 0 km/h
390 11-12-2006 00:00:00 5.05583 C 4.74 g/m*3 5.06 C 0 km/h
391 12-12-2006 00:00:00 6.37333 C 5.29 g/m*3 6.37 C 0 km/h
392 13-12-2006 00:00:00 6.9775 C 5.44 g/m*3 6.98 C 0 km/h
393 14-12-2006 00:00:00 7.83083 C 5.4 g/m*3 7.83 C 0 km/h
394 15-12-2006 00:00:00 3.2075 C 4.68 g/m*3 3.21 C 0 km/h
395 16-12-2006 00:00:00 4.14333 C 5.23 g/m*3 4.14 C 0 km/h
396 17-12-2006 00:00:00 3.69333 C 5.01 g/m*3 3.69 C 0 km/h
397 18-12-2006 00:00:00 3.37917 C 5.38 g/m*3 3.38 C 0 km/h
398 19-12-2006 00:00:00 3.70083 C 4.15 g/m*3 3.7 C 0 km/h
399 20-12-2006 00:00:00 2.3425 C 4.1 g/m*3 2.34 C 0 km/h
400 21-12-2006 00:00:00 4.7375 C 5.27 g/m*3 4.74 C 0 km/h
Sensor: Nr:Datum:Temp:Abs-Feuchte:Windchill:Wind:
Aussen-T/F 401 22-12-2006 00:00:00 1.65 C 4.63 g/m*3 1.65 C 0 km/h
402 23-12-2006 00:00:00 3.19244 C 4.47 g/m*3 3.19 C 0 km/h
403 24-12-2006 00:00:00 0.1725 C 4.3 g/m*3 0.17 C 0 km/h
404 25-12-2006 00:00:00 0.51583 C 4.15 g/m*3 0.52 C 0 km/h
405 26-12-2006 00:00:00 0.8425 C 3.93 g/m*3 0.84 C 0 km/h
406 27-12-2006 00:00:00 -1.28667 C 3.48 g/m*3 -1.29 C 0 km/h
407 28-12-2006 00:00:00 0.405 C 3.88 g/m*3 0.41 C 0 km/h
408 29-12-2006 00:00:00 1.22333 C 4.59 g/m*3 1.22 C 0 km/h
409 30-12-2006 00:00:00 3.5575 C 5.12 g/m*3 3.56 C 0 km/h
410 31-12-2006 00:00:00 10.37107 C 5.17 g/m*3 10.37 C 0 km/h
411 01-01-2007 00:00:00 7.99664 C 5.44 g/m*3 8 C 0 km/h
412 02-01-2007 00:00:00 4.33083 C 4.79 g/m*3 4.33 C 0 km/h
413 03-01-2007 00:00:00 5.63417 C 5.28 g/m*3 5.63 C 0 km/h
414 04-01-2007 00:00:00 7.7525 C 5.33 g/m*3 7.75 C 0 km/h
415 05-01-2007 00:00:00 8.08667 C 5.69 g/m*3 8.09 C 0 km/h
416 06-01-2007 00:00:00 10.50333 C 7.18 g/m*3 10.5 C 0 km/h
417 07-01-2007 00:00:00 8.5725 C 5.21 g/m*3 8.57 C 0 km/h
418 08-01-2007 00:00:00 9.32667 C 5.75 g/m*3 9.33 C 0 km/h
419 09-01-2007 00:00:00 13.04333 C 7.07 g/m*3 13.04 C 0 km/h
420 10-01-2007 00:00:00 11.54333 C 5.64 g/m*3 11.54 C 0 km/h
421 11-01-2007 00:00:00 7.61933 C 4.64 g/m*3 7.62 C 0 km/h
422 12-01-2007 00:00:00 9.0325 C 4.92 g/m*3 9.03 C 0 km/h
423 13-01-2007 00:00:00 11.8175 C 6.14 g/m*3 11.82 C 0 km/h
424 14-01-2007 00:00:00 7.55833 C 4.65 g/m*3 7.56 C 0 km/h
425 15-01-2007 00:00:00 0.8725 C 4.34 g/m*3 0.87 C 0 km/h
Sensor: Nr:Datum:Temp:Abs-Feuchte:Windchill:Wind:
Aussen-T/F 426 16-01-2007 00:00:00 5.06583 C 4.9 g/m*3 5.07 C 0 km/h
427 17-01-2007 00:00:00 10.18333 C 6.05 g/m*3 10.18 C 0 km/h
428 18-01-2007 00:00:00 12.41833 C 7.26 g/m*3 12.42 C 0 km/h
429 19-01-2007 00:00:00 10.36667 C 6.21 g/m*3 10.37 C 0 km/h
430 20-01-2007 00:00:00 11.68917 C 6.43 g/m*3 11.69 C 0 km/h
431 21-01-2007 00:00:00 6.88167 C 3.9 g/m*3 6.88 C 0 km/h
432 22-01-2007 00:00:00 4.26167 C 3.78 g/m*3 4.26 C 0 km/h
433 23-01-2007 00:00:00 -1.075 C 1.21 g/m*3 -1.08 C 0 km/h
434 24-01-2007 00:00:00 -2.97 C 1.85 g/m*3 -2.97 C 0 km/h
435 25-01-2007 00:00:00 -3.4825 C 2.25 g/m*3 -3.48 C 0 km/h
436 26-01-2007 00:00:00 -3.23083 C 2.24 g/m*3 -3.23 C 0 km/h
437 27-01-2007 00:00:00 2.77 C 3.92 g/m*3 2.77 C 0 km/h
438 28-01-2007 00:00:00 4.49917 C 4.21 g/m*3 4.5 C 0 km/h
439 29-01-2007 00:00:00 7.0175 C 5.25 g/m*3 7.02 C 0 km/h
440 30-01-2007 00:00:00 6.84917 C 5.2 g/m*3 6.85 C 0 km/h
441 31-01-2007 00:00:00 6.82583 C 4.18 g/m*3 6.83 C 0 km/h
442 01-02-2007 00:00:00 7.76667 C 5.68 g/m*3 7.77 C 0 km/h
443 02-02-2007 00:00:00 8.26583 C 6.84 g/m*3 8.27 C 0 km/h
444 03-02-2007 00:00:00 6.285 C 4.67 g/m*3 6.29 C 0 km/h
445 04-02-2007 00:00:00 5.90667 C 4.74 g/m*3 5.91 C 0 km/h
446 05-02-2007 00:00:00 2.19664 C 4.27 g/m*3 2.2 C 0 km/h
447 06-02-2007 00:00:00 3.33417 C 4.06 g/m*3 3.33 C 0 km/h
448 07-02-2007 00:00:00 1.63417 C 4.12 g/m*3 1.63 C 0 km/h
449 08-02-2007 00:00:00 2.62167 C 4.23 g/m*3 2.62 C 0 km/h
450 09-02-2007 00:00:00 5.79167 C 3.84 g/m*3 5.79 C 0 km/h
Sensor: Nr:Datum:Temp:Abs-Feuchte:Windchill:Wind:
Aussen-T/F 451 10-02-2007 00:00:00 5.48667 C 5.34 g/m*3 5.49 C 0 km/h
452 11-02-2007 00:00:00 7.70667 C 5.71 g/m*3 7.71 C 0 km/h
453 12-02-2007 00:00:00 8.33083 C 5.62 g/m*3 8.33 C 0 km/h
454 13-02-2007 00:00:00 7.8175 C 4.79 g/m*3 7.82 C 0 km/h
455 14-02-2007 00:00:00 5.82083 C 5.14 g/m*3 5.82 C 0 km/h
456 15-02-2007 00:00:00 7.37917 C 4.4 g/m*3 7.38 C 0 km/h
457 16-02-2007 00:00:00 4.61583 C 4.23 g/m*3 4.62 C 0 km/h
458 17-02-2007 00:00:00 4.92083 C 3.9 g/m*3 4.92 C 0 km/h
459 18-02-2007 00:00:00 3.4775 C 4.32 g/m*3 3.48 C 0 km/h
460 19-02-2007 00:00:00 5.4675 C 4.34 g/m*3 5.47 C 0 km/h
461 20-02-2007 00:00:00 7.09583 C 4.63 g/m*3 7.1 C 0 km/h
462 21-02-2007 00:00:00 5.63083 C 4.98 g/m*3 5.63 C 0 km/h
463 22-02-2007 00:00:00 7.10583 C 5.19 g/m*3 7.11 C 0 km/h
464 23-02-2007 00:00:00 9.02333 C 5.53 g/m*3 9.02 C 0 km/h
465 24-02-2007 00:00:00 8.47917 C 6.6 g/m*3 8.48 C 0 km/h
466 25-02-2007 00:00:00 7.975 C 5.55 g/m*3 7.98 C 0 km/h
467 26-02-2007 00:00:00 6.53667 C 5.43 g/m*3 6.54 C 0 km/h
468 27-02-2007 00:00:00 6.38333 C 4.96 g/m*3 6.38 C 0 km/h
469 28-02-2007 00:00:00 10.44667 C 5.35 g/m*3 10.45 C 0 km/h
470 01-03-2007 00:00:00 9.04667 C 5.11 g/m*3 9.05 C 0 km/h
471 02-03-2007 00:00:00 6.77917 C 3.71 g/m*3 6.78 C 0 km/h
472 03-03-2007 00:00:00 6.66639 C 4.88 g/m*3 6.67 C 0 km/h
473 04-03-2007 00:00:00 7.69833 C 4.83 g/m*3 7.7 C 0 km/h
474 05-03-2007 00:00:00 10.24667 C 4.19 g/m*3 10.25 C 0 km/h
475 06-03-2007 00:00:00 9.76083 C 4.14 g/m*3 9.76 C 0 km/h
Sensor: Nr:Datum:Temp:Abs-Feuchte:Windchill:Wind:
Aussen-T/F 476 07-03-2007 00:00:00 9.16417 C 4.96 g/m*3 9.16 C 0 km/h
477 08-03-2007 00:00:00 7.035 C 4.54 g/m*3 7.04 C 0 km/h
478 09-03-2007 00:00:00 6.3175 C 4.84 g/m*3 6.32 C 0 km/h
479 10-03-2007 00:00:00 7.155 C 4.37 g/m*3 7.16 C 0 km/h
480 11-03-2007 00:00:00 7.3175 C 4.45 g/m*3 7.32 C 0 km/h
481 12-03-2007 00:00:00 8.52833 C 4.75 g/m*3 8.53 C 0 km/h
482 13-03-2007 00:00:00 9.0475 C 5.4 g/m*3 9.05 C 0 km/h
483 14-03-2007 00:00:00 10.57395 C 5.78 g/m*3 10.57 C 0 km/h
484 15-03-2007 00:00:00 8.44333 C 5.18 g/m*3 8.44 C 0 km/h
485 16-03-2007 00:00:00 7.8175 C 5.18 g/m*3 7.82 C 0 km/h
486 17-03-2007 00:00:00 8.70833 C 6.38 g/m*3 8.71 C 0 km/h
487 18-03-2007 00:00:00 7.715 C 5.51 g/m*3 7.72 C 0 km/h
488 19-03-2007 00:00:00 4.56333 C 4 g/m*3 4.56 C 0 km/h
489 20-03-2007 00:00:00 4.1325 C 4.47 g/m*3 4.13 C 0 km/h
490 21-03-2007 00:00:00 4.47417 C 4.53 g/m*3 4.47 C 0 km/h
491 22-03-2007 00:00:00 2.25667 C 5.17 g/m*3 2.26 C 0 km/h
492 23-03-2007 00:00:00 3.37333 C 5.31 g/m*3 3.37 C 0 km/h
493 24-03-2007 00:00:00 5.37333 C 6.27 g/m*3 5.37 C 0 km/h
494 25-03-2007 00:00:00 8.58101 C 5.72 g/m*3 8.58 C 0 km/h
495 26-03-2007 00:00:00 14.9957 C 4.93 g/m*3 15 C 0 km/h
496 27-03-2007 00:00:00 11.65 C 4.69 g/m*3 11.65 C 0 km/h
497 28-03-2007 00:00:00 11.65313 C 4.21 g/m*3 11.65 C 0 km/h
498 29-03-2007 00:00:00 9.75 C 5.52 g/m*3 9.75 C 0 km/h
499 30-03-2007 00:00:00 10.73785 C 6.65 g/m*3 10.74 C 0 km/h
500 31-03-2007 00:00:00 10.49618 C 6.1 g/m*3 10.5 C 0 km/h
Sensor: Nr:Datum:Temp:Abs-Feuchte:Windchill:Wind:
Aussen-T/F 501 01-04-2007 00:00:00 13.71707 C 4.51 g/m*3 13.72 C 0 km/h
502 02-04-2007 00:00:00 13.59583 C 4.59 g/m*3 13.6 C 0 km/h
503 03-04-2007 00:00:00 8.94861 C 4.81 g/m*3 8.95 C 0 km/h
504 04-04-2007 00:00:00 9.66076 C 3.85 g/m*3 9.66 C 0 km/h
505 05-04-2007 00:00:00 8.81528 C 4.24 g/m*3 8.82 C 0 km/h
506 06-04-2007 00:00:00 12.12431 C 6.2 g/m*3 12.12 C 0 km/h
507 07-04-2007 00:00:00 9.61533 C 5.4 g/m*3 9.62 C 0 km/h
508 08-04-2007 00:00:00 9.79306 C 5.37 g/m*3 9.79 C 0 km/h
509 09-04-2007 00:00:00 11.52465 C 5.47 g/m*3 11.52 C 0 km/h
510 10-04-2007 00:00:00 11.94688 C 6.26 g/m*3 11.95 C 0 km/h
511 11-04-2007 00:00:00 10.93697 C 6.87 g/m*3 10.94 C 0 km/h
512 12-04-2007 00:00:00 16.75 C 7.24 g/m*3 16.75 C 0 km/h
513 13-04-2007 00:00:00 19.17708 C 8 g/m*3 19.18 C 0 km/h
514 14-04-2007 00:00:00 21.16042 C 7.77 g/m*3 21.16 C 0 km/h
515 15-04-2007 00:00:00 20.80833 C 7.27 g/m*3 20.81 C 0 km/h
516 16-04-2007 00:00:00 19.4375 C 6.62 g/m*3 19.44 C 0 km/h
517 17-04-2007 00:00:00 14.74271 C 6.57 g/m*3 14.74 C 0 km/h
518 18-04-2007 00:00:00 11.07188 C 4.76 g/m*3 11.07 C 0 km/h
519 19-04-2007 00:00:00 11.67188 C 5.25 g/m*3 11.67 C 0 km/h
520 20-04-2007 00:00:00 12.26458 C 4.91 g/m*3 12.26 C 0 km/h
521 21-04-2007 00:00:00 11.89271 C 4.5 g/m*3 11.89 C 0 km/h
522 22-04-2007 00:00:00 15.65729 C 5.54 g/m*3 15.66 C 0 km/h
523 23-04-2007 00:00:00 17.48021 C 6.48 g/m*3 17.48 C 0 km/h
524 24-04-2007 00:00:00 20.85102 C 8.12 g/m*3 20.85 C 0 km/h
525 25-04-2007 00:00:00 22.135 C 8.68 g/m*3 22.14 C 0 km/h
Sensor: Nr:Datum:Temp:Abs-Feuchte:Windchill:Wind:
Aussen-T/F 526 26-04-2007 00:00:00 21.16 C 7.81 g/m*3 21.16 C 0 km/h
527 27-04-2007 00:00:00 20.46303 C 7.42 g/m*3 20.46 C 0 km/h
528 28-04-2007 00:00:00 20.92083 C 7.71 g/m*3 20.92 C 0 km/h
529 29-04-2007 00:00:00 19.75583 C 7.1 g/m*3 19.76 C 0 km/h
530 30-04-2007 00:00:00 16.78917 C 4.21 g/m*3 16.79 C 0 km/h
531 01-05-2007 00:00:00 16.47083 C 4.66 g/m*3 16.47 C 0 km/h
532 02-05-2007 00:00:00 16.09167 C 3.81 g/m*3 16.09 C 0 km/h
533 03-05-2007 00:00:00 17.355 C 5.15 g/m*3 17.36 C 0 km/h
534 04-05-2007 00:00:00 18.835 C 5.97 g/m*3 18.84 C 0 km/h
535 05-05-2007 00:00:00 17.5975 C 6.18 g/m*3 17.6 C 0 km/h
536 06-05-2007 00:00:00 16.51167 C 7.41 g/m*3 16.51 C 0 km/h
537 07-05-2007 00:00:00 15.5625 C 8.64 g/m*3 15.56 C 0 km/h
538 08-05-2007 00:00:00 14.1825 C 7.73 g/m*3 14.18 C 0 km/h
539 09-05-2007 00:00:00 12.76917 C 8.87 g/m*3 12.77 C 0 km/h
540 10-05-2007 00:00:00 17.70667 C 8.53 g/m*3 17.71 C 0 km/h
541 11-05-2007 00:00:00 15.535 C 6.56 g/m*3 15.54 C 0 km/h
542 12-05-2007 00:00:00 15.02689 C 7.96 g/m*3 15.03 C 0 km/h
543 13-05-2007 00:00:00 17.04333 C 8.98 g/m*3 17.04 C 0 km/h
544 14-05-2007 00:00:00 15.98917 C 7.81 g/m*3 15.99 C 0 km/h
545 15-05-2007 00:00:00 13.36917 C 7.46 g/m*3 13.37 C 0 km/h
546 16-05-2007 00:00:00 12.17917 C 7.6 g/m*3 12.18 C 0 km/h
547 17-05-2007 00:00:00 10.8525 C 7.97 g/m*3 10.85 C 0 km/h
548 18-05-2007 00:00:00 14.6325 C 8.23 g/m*3 14.63 C 0 km/h
549 19-05-2007 00:00:00 18.53583 C 10.39 g/m*3 18.54 C 0 km/h
550 20-05-2007 00:00:00 21.92667 C 9.73 g/m*3 21.93 C 0 km/h
Sensor: Nr:Datum:Temp:Abs-Feuchte:Windchill:Wind:
Aussen-T/F 551 21-05-2007 00:00:00 22.61667 C 11.44 g/m*3 22.62 C 0 km/h
552 22-05-2007 00:00:00 22.86667 C 11.78 g/m*3 22.87 C 0 km/h
553 23-05-2007 00:00:00 20.8675 C 11.32 g/m*3 20.87 C 0 km/h
554 24-05-2007 00:00:00 23.91417 C 11.42 g/m*3 23.91 C 0 km/h
555 25-05-2007 00:00:00 24.57059 C 11.78 g/m*3 24.57 C 0 km/h
556 26-05-2007 00:00:00 21.745 C 12.71 g/m*3 21.75 C 0 km/h
557 27-05-2007 00:00:00 17.5125 C 9.85 g/m*3 17.51 C 0 km/h
558 28-05-2007 00:00:00 12.24917 C 8.51 g/m*3 12.25 C 0 km/h
559 29-05-2007 00:00:00 11.033 C 7.93 g/m*3 11.03 C 0 km/h
560 30-05-2007 00:00:00 13.67465 C 6.29 g/m*3 13.67 C 0 km/h
561 31-05-2007 00:00:00 16.05139 C 8.28 g/m*3 16.05 C 0 km/h
562 01-06-2007 00:00:00 15.42361 C 9.57 g/m*3 15.42 C 0 km/h
563 02-06-2007 00:00:00 18.53611 C 9.82 g/m*3 18.54 C 0 km/h
564 03-06-2007 00:00:00 20.87083 C 10.1 g/m*3 20.87 C 0 km/h
565 04-06-2007 00:00:00 22.02361 C 10.59 g/m*3 22.02 C 0 km/h
566 05-06-2007 00:00:00 21.66389 C 10.23 g/m*3 21.66 C 0 km/h
567 06-06-2007 00:00:00 22.53889 C 10.59 g/m*3 22.54 C 0 km/h
568 07-06-2007 00:00:00 25.42222 C 11.36 g/m*3 25.42 C 0 km/h
569 08-06-2007 00:00:00 26.47639 C 11.42 g/m*3 26.48 C 0 km/h
570 09-06-2007 00:00:00 23.12917 C 12.28 g/m*3 23.13 C 0 km/h
571 10-06-2007 00:00:00 21.28889 C 12.55 g/m*3 21.29 C 0 km/h
572 11-06-2007 00:00:00 21.88068 C 11.9 g/m*3 21.88 C 0 km/h
573 12-06-2007 00:00:00 20.17167 C 11.8 g/m*3 20.17 C 0 km/h
574 13-06-2007 00:00:00 21.51176 C 10.38 g/m*3 21.51 C 0 km/h
575 14-06-2007 00:00:00 22.15833 C 12.13 g/m*3 22.16 C 0 km/h
Sensor: Nr:Datum:Temp:Abs-Feuchte:Windchill:Wind:
Aussen-T/F 576 15-06-2007 00:00:00 19.84667 C 11.6 g/m*3 19.85 C 0 km/h
577 16-06-2007 00:00:00 18.0125 C 9.3 g/m*3 18.01 C 0 km/h
578 17-06-2007 00:00:00 20.0125 C 9.63 g/m*3 20.01 C 0 km/h
579 18-06-2007 00:00:00 20.92583 C 11.23 g/m*3 20.93 C 0 km/h
580 19-06-2007 00:00:00 23.70833 C 11.18 g/m*3 23.71 C 0 km/h
581 20-06-2007 00:00:00 23.68667 C 12.04 g/m*3 23.69 C 0 km/h
582 21-06-2007 00:00:00 18.30167 C 12.42 g/m*3 18.3 C 0 km/h
583 22-06-2007 00:00:00 16.06417 C 10.95 g/m*3 16.06 C 0 km/h
584 23-06-2007 00:00:00 16.04167 C 10.56 g/m*3 16.04 C 0 km/h
585 24-06-2007 00:00:00 19.31667 C 10.02 g/m*3 19.32 C 0 km/h
586 25-06-2007 00:00:00 18.13667 C 10.86 g/m*3 18.14 C 0 km/h
587 26-06-2007 00:00:00 13.90667 C 8.35 g/m*3 13.91 C 0 km/h
588 27-06-2007 00:00:00 14.2225 C 6.63 g/m*3 14.22 C 0 km/h
589 28-06-2007 00:00:00 15.82833 C 7.44 g/m*3 15.83 C 0 km/h
590 29-06-2007 00:00:00 16.88417 C 8.32 g/m*3 16.88 C 0 km/h
591 30-06-2007 00:00:00 18.675 C 9.69 g/m*3 18.68 C 0 km/h
592 01-07-2007 00:00:00 20.8525 C 10.65 g/m*3 20.85 C 0 km/h
593 02-07-2007 00:00:00 19.54917 C 10.43 g/m*3 19.55 C 0 km/h
594 03-07-2007 00:00:00 15.42583 C 9.84 g/m*3 15.43 C 0 km/h
595 04-07-2007 00:00:00 15.17417 C 8.93 g/m*3 15.17 C 0 km/h
596 05-07-2007 00:00:00 15.1325 C 9.55 g/m*3 15.13 C 0 km/h
597 06-07-2007 00:00:00 17.63613 C 8.26 g/m*3 17.64 C 0 km/h
598 07-07-2007 00:00:00 18.55167 C 7.14 g/m*3 18.55 C 0 km/h
599 08-07-2007 00:00:00 19.8175 C 8.32 g/m*3 19.82 C 0 km/h
600 09-07-2007 00:00:00 17.15583 C 9.38 g/m*3 17.16 C 0 km/h
Sensor: Nr:Datum:Temp:Abs-Feuchte:Windchill:Wind:
Aussen-T/F 601 10-07-2007 00:00:00 14.66583 C 9.37 g/m*3 14.67 C 0 km/h
602 11-07-2007 00:00:00 14.37833 C 9.44 g/m*3 14.38 C 0 km/h
603 12-07-2007 00:00:00 17.7 C 9.66 g/m*3 17.7 C 0 km/h
604 13-07-2007 00:00:00 22.43167 C 11.88 g/m*3 22.43 C 0 km/h
605 14-07-2007 00:00:00 25.05 C 11.69 g/m*3 25.05 C 0 km/h
606 15-07-2007 00:00:00 27.2075 C 11.44 g/m*3 27.21 C 0 km/h
607 16-07-2007 00:00:00 26.8025 C 8.93 g/m*3 26.8 C 0 km/h
608 17-07-2007 00:00:00 25.11167 C 8.56 g/m*3 25.11 C 0 km/h
609 18-07-2007 00:00:00 22.78 C 9.2 g/m*3 22.78 C 0 km/h
610 19-07-2007 00:00:00 20.29333 C 11.02 g/m*3 20.29 C 0 km/h
611 20-07-2007 00:00:00 22.04917 C 12.14 g/m*3 22.05 C 0 km/h
612 21-07-2007 00:00:00 19.74917 C 9.69 g/m*3 19.75 C 0 km/h
613 22-07-2007 00:00:00 19.89917 C 8.33 g/m*3 19.9 C 0 km/h
614 23-07-2007 00:00:00 16.33333 C 10.14 g/m*3 16.33 C 0 km/h
615 24-07-2007 00:00:00 16.72667 C 9.48 g/m*3 16.73 C 0 km/h
616 25-07-2007 00:00:00 19.68571 C 8.82 g/m*3 19.69 C 0 km/h
617 26-07-2007 00:00:00 21.75583 C 9.38 g/m*3 21.76 C 0 km/h
618 27-07-2007 00:00:00 22.4675 C 8.25 g/m*3 22.47 C 0 km/h
619 28-07-2007 00:00:00 21.095 C 10.2 g/m*3 21.1 C 0 km/h
620 29-07-2007 00:00:00 17.3075 C 9.52 g/m*3 17.31 C 0 km/h
621 30-07-2007 00:00:00 14.66167 C 6.94 g/m*3 14.66 C 0 km/h
622 31-07-2007 00:00:00 15.68167 C 6.71 g/m*3 15.68 C 0 km/h
623 01-08-2007 00:00:00 18.53833 C 7.48 g/m*3 18.54 C 0 km/h
624 02-08-2007 00:00:00 18.3275 C 9.54 g/m*3 18.33 C 0 km/h
625 03-08-2007 00:00:00 19.78083 C 8.92 g/m*3 19.78 C 0 km/h
Sensor: Nr:Datum:Temp:Abs-Feuchte:Windchill:Wind:
Aussen-T/F 626 04-08-2007 00:00:00 21.05 C 8.85 g/m*3 21.05 C 0 km/h
627 05-08-2007 00:00:00 23.69833 C 9.12 g/m*3 23.7 C 0 km/h
628 06-08-2007 00:00:00 24.23417 C 9.32 g/m*3 24.23 C 0 km/h
629 07-08-2007 00:00:00 18.36167 C 12.63 g/m*3 18.36 C 0 km/h
630 08-08-2007 00:00:00 16.0175 C 11.01 g/m*3 16.02 C 0 km/h
631 09-08-2007 00:00:00 14.26667 C 11.55 g/m*3 14.27 C 0 km/h
632 10-08-2007 00:00:00 17.82833 C 13.5 g/m*3 17.83 C 0 km/h
633 11-08-2007 00:00:00 19.64083 C 11.07 g/m*3 19.64 C 0 km/h
634 12-08-2007 00:00:00 20.07417 C 10.09 g/m*3 20.07 C 0 km/h
635 13-08-2007 00:00:00 20.9175 C 10.13 g/m*3 20.92 C 0 km/h
636 14-08-2007 00:00:00 20.9275 C 9.64 g/m*3 20.93 C 0 km/h
637 15-08-2007 00:00:00 23.49917 C 12.92 g/m*3 23.5 C 0 km/h
638 16-08-2007 00:00:00 18.74667 C 10.51 g/m*3 18.75 C 0 km/h
639 17-08-2007 00:00:00 17.27833 C 8.08 g/m*3 17.28 C 0 km/h
640 18-08-2007 00:00:00 17.40917 C 8.03 g/m*3 17.41 C 0 km/h
641 19-08-2007 00:00:00 17.24583 C 9.91 g/m*3 17.25 C 0 km/h
642 20-08-2007 00:00:00 17.315 C 9.7 g/m*3 17.32 C 0 km/h
643 21-08-2007 00:00:00 15.4225 C 10.31 g/m*3 15.42 C 0 km/h
644 22-08-2007 00:00:00 15.95593 C 11.84 g/m*3 15.96 C 0 km/h
645 23-08-2007 00:00:00 17.7575 C 11.98 g/m*3 17.76 C 0 km/h
646 24-08-2007 00:00:00 19.43833 C 11.56 g/m*3 19.44 C 0 km/h
647 25-08-2007 00:00:00 21.42 C 11.91 g/m*3 21.42 C 0 km/h
648 26-08-2007 00:00:00 21.99167 C 12.1 g/m*3 21.99 C 0 km/h
649 27-08-2007 00:00:00 19.53583 C 8.84 g/m*3 19.54 C 0 km/h
650 28-08-2007 00:00:00 16.42167 C 8.1 g/m*3 16.42 C 0 km/h
Sensor: Nr:Datum:Temp:Abs-Feuchte:Windchill:Wind:
Aussen-T/F 651 29-08-2007 00:00:00 17.285 C 6.71 g/m*3 17.29 C 0 km/h
652 30-08-2007 00:00:00 15.3675 C 7.01 g/m*3 15.37 C 0 km/h
653 31-08-2007 00:00:00 17.5825 C 9.89 g/m*3 17.58 C 0 km/h
654 01-09-2007 00:00:00 17.1975 C 10.01 g/m*3 17.2 C 0 km/h
655 02-09-2007 00:00:00 17.35583 C 9 g/m*3 17.36 C 0 km/h
656 03-09-2007 00:00:00 15.74917 C 9.08 g/m*3 15.75 C 0 km/h
657 04-09-2007 00:00:00 12.88417 C 7.04 g/m*3 12.88 C 0 km/h
658 05-09-2007 00:00:00 12.6395 C 6.92 g/m*3 12.64 C 0 km/h
659 06-09-2007 00:00:00 15.00917 C 9.43 g/m*3 15.01 C 0 km/h
660 07-09-2007 00:00:00 15.9325 C 9.22 g/m*3 15.93 C 0 km/h
661 08-09-2007 00:00:00 15.13667 C 10.05 g/m*3 15.14 C 0 km/h
662 09-09-2007 00:00:00 15.125 C 9.17 g/m*3 15.13 C 0 km/h
663 10-09-2007 00:00:00 12.4075 C 8.68 g/m*3 12.41 C 0 km/h
664 11-09-2007 00:00:00 14.36833 C 8.61 g/m*3 14.37 C 0 km/h
665 12-09-2007 00:00:00 14.94417 C 8.54 g/m*3 14.94 C 0 km/h
666 13-09-2007 00:00:00 14.5175 C 8.49 g/m*3 14.52 C 0 km/h
667 14-09-2007 00:00:00 15.68417 C 8.62 g/m*3 15.68 C 0 km/h
668 15-09-2007 00:00:00 16.86917 C 8.24 g/m*3 16.87 C 0 km/h
669 16-09-2007 00:00:00 15.27 C 8.22 g/m*3 15.27 C 0 km/h
670 17-09-2007 00:00:00 16.68833 C 10.1 g/m*3 16.69 C 0 km/h
671 18-09-2007 00:00:00 11.46833 C 8.27 g/m*3 11.47 C 0 km/h
672 19-09-2007 00:00:00 10.3275 C 6.41 g/m*3 10.33 C 0 km/h
673 20-09-2007 00:00:00 13.68083 C 7.03 g/m*3 13.68 C 0 km/h
674 21-09-2007 00:00:00 14.35833 C 7.71 g/m*3 14.36 C 0 km/h
675 22-09-2007 00:00:00 15.97583 C 8.74 g/m*3 15.98 C 0 km/h
Sensor: Nr:Datum:Temp:Abs-Feuchte:Windchill:Wind:
Aussen-T/F 676 23-09-2007 00:00:00 17.80333 C 9.5 g/m*3 17.8 C 0 km/h
677 24-09-2007 00:00:00 16.95833 C 9.49 g/m*3 16.96 C 0 km/h
678 25-09-2007 00:00:00 12.91917 C 7.71 g/m*3 12.92 C 0 km/h
679 26-09-2007 00:00:00 12.2675 C 7.86 g/m*3 12.27 C 0 km/h
680 27-09-2007 00:00:00 10.19083 C 8.85 g/m*3 10.19 C 0 km/h
681 28-09-2007 00:00:00 12.50168 C 8.71 g/m*3 12.5 C 0 km/h
682 29-09-2007 00:00:00 13.54444 C 8.6 g/m*3 13.54 C 0 km/h
683 30-09-2007 00:00:00 14.59687 C 9.12 g/m*3 14.6 C 0 km/h
684 01-10-2007 00:00:00 14.70313 C 9.71 g/m*3 14.7 C 0 km/h
685 02-10-2007 00:00:00 17.235 C 11.49 g/m*3 17.24 C 0 km/h
686 03-10-2007 00:00:00 17.39188 C 11.47 g/m*3 17.39 C 0 km/h
687 04-10-2007 00:00:00 17.33653 C 11.53 g/m*3 17.34 C 0 km/h
688 05-10-2007 00:00:00 15.50646 C 8.72 g/m*3 15.51 C 0 km/h
689 06-10-2007 00:00:00 12.34042 C 7.59 g/m*3 12.34 C 0 km/h
690 07-10-2007 00:00:00 11.60813 C 7.69 g/m*3 11.61 C 0 km/h
691 08-10-2007 00:00:00 10.74021 C 7.53 g/m*3 10.74 C 0 km/h
692 09-10-2007 00:00:00 12.05052 C 8.1 g/m*3 12.05 C 0 km/h
693 10-10-2007 00:00:00 14.53875 C 8.04 g/m*3 14.54 C 0 km/h
694 11-10-2007 00:00:00 11.52958 C 7.34 g/m*3 11.53 C 0 km/h
695 12-10-2007 00:00:00 12.23271 C 8.24 g/m*3 12.23 C 0 km/h
696 13-10-2007 00:00:00 13.96146 C 7.82 g/m*3 13.96 C 0 km/h
697 14-10-2007 00:00:00 9.94958 C 6.47 g/m*3 9.95 C 0 km/h
698 15-10-2007 00:00:00 10.725 C 7.35 g/m*3 10.73 C 0 km/h
699 16-10-2007 00:00:00 13.70417 C 8.35 g/m*3 13.7 C 0 km/h
700 17-10-2007 00:00:00 11.78601 C 8.39 g/m*3 11.79 C 0 km/h
Sensor: Nr:Datum:Temp:Abs-Feuchte:Windchill:Wind:
Aussen-T/F 701 18-10-2007 00:00:00 9.70042 C 6.45 g/m*3 9.7 C 0 km/h
702 19-10-2007 00:00:00 7.65667 C 6.17 g/m*3 7.66 C 0 km/h
703 20-10-2007 00:00:00 3.38583 C 5.54 g/m*3 3.39 C 0 km/h
704 24-10-2007 00:00:00 7.63803 C 5.69 g/m*3 7.64 C 0 km/h
705 25-10-2007 00:00:00 8.51042 C 6.26 g/m*3 8.51 C 0 km/h
706 26-10-2007 00:00:00 8.8712 C 6.03 g/m*3 8.87 C 0 km/h
707 27-10-2007 00:00:00 8.5725 C 5.85 g/m*3 8.57 C 0 km/h
708 28-10-2007 00:00:00 9.1632 C 5.9 g/m*3 9.16 C 0 km/h
709 29-10-2007 00:00:00 8.77833 C 7.07 g/m*3 8.78 C 0 km/h
710 30-10-2007 00:00:00 8.70333 C 7.3 g/m*3 8.7 C 0 km/h
711 31-10-2007 00:00:00 6.43333 C 6.44 g/m*3 6.43 C 0 km/h
712 01-11-2007 00:00:00 5.77833 C 6.04 g/m*3 5.78 C 0 km/h
713 02-11-2007 00:00:00 10.20333 C 8.52 g/m*3 10.2 C 0 km/h
714 03-11-2007 00:00:00 11.76723 C 9.64 g/m*3 11.77 C 0 km/h
715 04-11-2007 00:00:00 10.35 C 6.84 g/m*3 10.35 C 0 km/h
716 05-11-2007 00:00:00 8.61333 C 5.38 g/m*3 8.61 C 0 km/h
717 06-11-2007 00:00:00 8.1225 C 5.88 g/m*3 8.12 C 0 km/h
718 07-11-2007 00:00:00 8.495 C 6.13 g/m*3 8.49 C 0 km/h
719 08-11-2007 00:00:00 9.85667 C 7.21 g/m*3 9.86 C 0 km/h
720 09-11-2007 00:00:00 5.16167 C 5.11 g/m*3 5.16 C 0 km/h
721 10-11-2007 00:00:00 6.29083 C 5.92 g/m*3 6.29 C 0 km/h
722 11-11-2007 00:00:00 7.75917 C 6.67 g/m*3 7.76 C 0 km/h
723 12-11-2007 00:00:00 5.1475 C 4.79 g/m*3 5.15 C 0 km/h
724 13-11-2007 00:00:00 3.98167 C 5.14 g/m*3 3.98 C 0 km/h
725 14-11-2007 00:00:00 2.72417 C 4.37 g/m*3 2.72 C 0 km/h
Sensor: Nr:Datum:Temp:Abs-Feuchte:Windchill:Wind:
Aussen-T/F 726 15-11-2007 00:00:00 1.3425 C 3.82 g/m*3 1.34 C 0 km/h
727 16-11-2007 00:00:00 -0.59167 C 3.84 g/m*3 -0.59 C 0 km/h
728 17-11-2007 00:00:00 3.35714 C 4.68 g/m*3 3.36 C 0 km/h
729 18-11-2007 00:00:00 3.3825 C 4.91 g/m*3 3.38 C 0 km/h
730 19-11-2007 00:00:00 2.57333 C 4.34 g/m*3 2.57 C 0 km/h
731 20-11-2007 00:00:00 5.33 C 4.59 g/m*3 5.33 C 0 km/h
732 21-11-2007 00:00:00 6.755 C 5.66 g/m*3 6.76 C 0 km/h
733 22-11-2007 00:00:00 7.93917 C 6.65 g/m*3 7.94 C 0 km/h
734 23-11-2007 00:00:00 6.7275 C 6.81 g/m*3 6.73 C 0 km/h
735 24-11-2007 00:00:00 2.76833 C 4.82 g/m*3 2.77 C 0 km/h
736 25-11-2007 00:00:00 4.25167 C 5.29 g/m*3 4.25 C 0 km/h
737 26-11-2007 00:00:00 3.9725 C 4.66 g/m*3 3.97 C 0 km/h
738 27-11-2007 00:00:00 4.23833 C 4.68 g/m*3 4.24 C 0 km/h
739 28-11-2007 00:00:00 0.0625 C 4.32 g/m*3 0.06 C 0 km/h
740 29-11-2007 00:00:00 1.3325 C 4.59 g/m*3 1.33 C 0 km/h
741 30-11-2007 00:00:00 5.76 C 5.7 g/m*3 5.76 C 0 km/h
742 01-12-2007 00:00:00 8.51345 C 5.82 g/m*3 8.51 C 0 km/h
743 02-12-2007 00:00:00 9.13667 C 6.27 g/m*3 9.14 C 0 km/h
744 03-12-2007 00:00:00 7.21167 C 4.97 g/m*3 7.21 C 0 km/h
745 04-12-2007 00:00:00 5.77583 C 5.61 g/m*3 5.78 C 0 km/h
746 05-12-2007 00:00:00 10.11667 C 7.2 g/m*3 10.12 C 0 km/h
747 06-12-2007 00:00:00 9.85667 C 6.67 g/m*3 9.86 C 0 km/h
748 07-12-2007 00:00:00 10.3625 C 6.09 g/m*3 10.36 C 0 km/h
749 08-12-2007 00:00:00 5.77917 C 4.69 g/m*3 5.78 C 0 km/h
750 09-12-2007 00:00:00 7.00333 C 5.75 g/m*3 7 C 0 km/h
Sensor: Nr:Datum:Temp:Abs-Feuchte:Windchill:Wind:
Aussen-T/F 751 10-12-2007 00:00:00 6.24167 C 6.16 g/m*3 6.24 C 0 km/h
752 11-12-2007 00:00:00 5.6775 C 5.39 g/m*3 5.68 C 0 km/h
753 12-12-2007 00:00:00 4.92417 C 5 g/m*3 4.92 C 0 km/h
754 13-12-2007 00:00:00 5.2125 C 4.36 g/m*3 5.21 C 0 km/h
755 14-12-2007 00:00:00 2.35798 C 2.96 g/m*3 2.36 C 0 km/h
756 15-12-2007 00:00:00 0.0325 C 2.86 g/m*3 0.03 C 0 km/h
757 16-12-2007 00:00:00 -2.92417 C 2.98 g/m*3 -2.92 C 0 km/h
758 17-12-2007 00:00:00 -1.06 C 2.85 g/m*3 -1.06 C 0 km/h
759 18-12-2007 00:00:00 -2.50833 C 3.14 g/m*3 -2.51 C 0 km/h
760 19-12-2007 00:00:00 -3.8675 C 3.09 g/m*3 -3.87 C 0 km/h
761 20-12-2007 00:00:00 -5.26417 C 2.9 g/m*3 -5.26 C 0 km/h
762 21-12-2007 00:00:00 -5.9625 C 2.72 g/m*3 -5.96 C 0 km/h
763 22-12-2007 00:00:00 -7.21833 C 2.43 g/m*3 -7.22 C 0 km/h
764 23-12-2007 00:00:00 -5.47333 C 2.81 g/m*3 -5.47 C 0 km/h
765 24-12-2007 00:00:00 -1.28333 C 4.01 g/m*3 -1.28 C 0 km/h
766 25-12-2007 00:00:00 -3.13917 C 3.2 g/m*3 -3.14 C 0 km/h
767 26-12-2007 00:00:00 -1.31513 C 3.83 g/m*3 -1.32 C 0 km/h
768 27-12-2007 00:00:00 2.63917 C 4.81 g/m*3 2.64 C 0 km/h
769 28-12-2007 00:00:00 4.575 C 5.27 g/m*3 4.58 C 0 km/h
770 29-12-2007 00:00:00 3.32667 C 4.84 g/m*3 3.33 C 0 km/h
771 30-12-2007 00:00:00 4.99167 C 5.24 g/m*3 4.99 C 0 km/h
772 31-12-2007 00:00:00 3.21667 C 5.19 g/m*3 3.22 C 0 km/h
773 01-01-2008 00:00:00 1.85083 C 4.52 g/m*3 1.85 C 0 km/h
774 02-01-2008 00:00:00 -1.72 C 3.21 g/m*3 -1.72 C 0 km/h
775 03-01-2008 00:00:00 -0.05667 C 2.87 g/m*3 -0.06 C 0 km/h
Sensor: Nr:Datum:Temp:Abs-Feuchte:Windchill:Wind:
Aussen-T/F 776 04-01-2008 00:00:00 0.27167 C 3.34 g/m*3 0.27 C 0 km/h
777 05-01-2008 00:00:00 5.0775 C 5.63 g/m*3 5.08 C 0 km/h
778 06-01-2008 00:00:00 3.95167 C 5.23 g/m*3 3.95 C 0 km/h
779 07-01-2008 00:00:00 5.63583 C 5.3 g/m*3 5.64 C 0 km/h
780 08-01-2008 00:00:00 4.45546 C 5.42 g/m*3 4.46 C 0 km/h
781 09-01-2008 00:00:00 4.03167 C 5.39 g/m*3 4.03 C 0 km/h
782 10-01-2008 00:00:00 6.32083 C 5.48 g/m*3 6.32 C 0 km/h
783 11-01-2008 00:00:00 9.6175 C 5.87 g/m*3 9.62 C 0 km/h
784 12-01-2008 00:00:00 6.39 C 5.01 g/m*3 6.39 C 0 km/h
785 13-01-2008 00:00:00 0.58167 C 4.26 g/m*3 0.58 C 0 km/h
786 14-01-2008 00:00:00 3.80833 C 4.9 g/m*3 3.81 C 0 km/h
787 15-01-2008 00:00:00 8.28833 C 5.12 g/m*3 8.29 C 0 km/h
788 16-01-2008 00:00:00 8.28667 C 5.35 g/m*3 8.29 C 0 km/h
789 17-01-2008 00:00:00 7.21833 C 5.52 g/m*3 7.22 C 0 km/h
790 18-01-2008 00:00:00 9.17667 C 6.31 g/m*3 9.18 C 0 km/h
791 19-01-2008 00:00:00 12.72353 C 7.44 g/m*3 12.72 C 0 km/h
792 20-01-2008 00:00:00 12.27333 C 6.9 g/m*3 12.27 C 0 km/h
793 21-01-2008 00:00:00 10.17403 C 5.8 g/m*3 10.17 C 0 km/h
794 22-01-2008 00:00:00 4.58605 C 4.01 g/m*3 4.59 C 0 km/h
795 23-01-2008 00:00:00 2.9125 C 3.92 g/m*3 2.91 C 0 km/h
796 24-01-2008 00:00:00 6.355 C 4.65 g/m*3 6.36 C 0 km/h
797 25-01-2008 00:00:00 3.72583 C 4.34 g/m*3 3.73 C 0 km/h
798 26-01-2008 00:00:00 5.43583 C 4.26 g/m*3 5.44 C 0 km/h
799 27-01-2008 00:00:00 5.64333 C 4.29 g/m*3 5.64 C 0 km/h
800 28-01-2008 00:00:00 7.44 C 5.19 g/m*3 7.44 C 0 km/h
Sensor: Nr:Datum:Temp:Abs-Feuchte:Windchill:Wind:
Aussen-T/F 801 29-01-2008 00:00:00 5.72167 C 4.29 g/m*3 5.72 C 0 km/h
802 30-01-2008 00:00:00 2.05833 C 4.71 g/m*3 2.06 C 0 km/h
803 31-01-2008 00:00:00 2.0958 C 3.82 g/m*3 2.1 C 0 km/h
804 01-02-2008 00:00:00 4.10167 C 4.83 g/m*3 4.1 C 0 km/h
805 02-02-2008 00:00:00 2.155 C 3.64 g/m*3 2.15 C 0 km/h
806 03-02-2008 00:00:00 0.64917 C 3.2 g/m*3 0.65 C 0 km/h
807 04-02-2008 00:00:00 4.5125 C 4.25 g/m*3 4.51 C 0 km/h
808 05-02-2008 00:00:00 6.43917 C 5.11 g/m*3 6.44 C 0 km/h
809 06-02-2008 00:00:00 8.675 C 5.72 g/m*3 8.68 C 0 km/h
810 07-02-2008 00:00:00 3.96333 C 4.24 g/m*3 3.96 C 0 km/h
811 08-02-2008 00:00:00 2.41167 C 3.87 g/m*3 2.41 C 0 km/h
812 09-02-2008 00:00:00 2.61833 C 3.61 g/m*3 2.62 C 0 km/h
813 10-02-2008 00:00:00 2.41333 C 3.74 g/m*3 2.41 C 0 km/h
814 11-02-2008 00:00:00 3.10083 C 4.4 g/m*3 3.1 C 0 km/h
815 12-02-2008 00:00:00 2.92667 C 4.49 g/m*3 2.93 C 0 km/h
816 13-02-2008 00:00:00 2.03193 C 4.33 g/m*3 2.03 C 0 km/h
817 14-02-2008 00:00:00 0.96667 C 4.4 g/m*3 0.97 C 0 km/h
818 15-02-2008 00:00:00 2.4125 C 3.13 g/m*3 2.41 C 0 km/h
819 16-02-2008 00:00:00 -0.75333 C 2.03 g/m*3 -0.75 C 0 km/h
820 17-02-2008 00:00:00 -1.21667 C 2.05 g/m*3 -1.22 C 0 km/h
821 18-02-2008 00:00:00 -0.28333 C 2.13 g/m*3 -0.28 C 0 km/h
822 19-02-2008 00:00:00 0.85417 C 2.54 g/m*3 0.85 C 0 km/h
823 20-02-2008 00:00:00 1.65 C 4.49 g/m*3 1.65 C 0 km/h
824 21-02-2008 00:00:00 6.5725 C 5.76 g/m*3 6.57 C 0 km/h
825 22-02-2008 00:00:00 9.70667 C 5.88 g/m*3 9.71 C 0 km/h
Sensor: Nr:Datum:Temp:Abs-Feuchte:Windchill:Wind:
Aussen-T/F 826 23-02-2008 00:00:00 9.48833 C 5.6 g/m*3 9.49 C 0 km/h
827 24-02-2008 00:00:00 6.65583 C 5.66 g/m*3 6.66 C 0 km/h
828 25-02-2008 00:00:00 9.93833 C 6.06 g/m*3 9.94 C 0 km/h
829 26-02-2008 00:00:00 11.1075 C 6.49 g/m*3 11.11 C 0 km/h
830 27-02-2008 00:00:00 7.70168 C 4.44 g/m*3 7.7 C 0 km/h
831 28-02-2008 00:00:00 7.6125 C 4.89 g/m*3 7.61 C 0 km/h
832 29-02-2008 00:00:00 8.7625 C 7.16 g/m*3 8.76 C 0 km/h
833 01-03-2008 00:00:00 9.4675 C 4.85 g/m*3 9.47 C 0 km/h
834 02-03-2008 00:00:00 11.1725 C 5.33 g/m*3 11.17 C 0 km/h
835 03-03-2008 00:00:00 7.56583 C 4.08 g/m*3 7.57 C 0 km/h
836 04-03-2008 00:00:00 2.7525 C 4.06 g/m*3 2.75 C 0 km/h
837 05-03-2008 00:00:00 1.71 C 3.03 g/m*3 1.71 C 0 km/h
838 06-03-2008 00:00:00 2.81917 C 2.99 g/m*3 2.82 C 0 km/h
839 07-03-2008 00:00:00 6.93833 C 4.72 g/m*3 6.94 C 0 km/h
840 08-03-2008 00:00:00 6.94667 C 4.5 g/m*3 6.95 C 0 km/h
841 09-03-2008 00:00:00 8.06667 C 4.11 g/m*3 8.07 C 0 km/h
842 10-03-2008 00:00:00 8.22941 C 4.32 g/m*3 8.23 C 0 km/h
843 11-03-2008 00:00:00 8.355 C 5.31 g/m*3 8.36 C 0 km/h
844 12-03-2008 00:00:00 9.11833 C 4.2 g/m*3 9.12 C 0 km/h
845 13-03-2008 00:00:00 7.62667 C 4.06 g/m*3 7.63 C 0 km/h
846 14-03-2008 00:00:00 9.14417 C 5.77 g/m*3 9.14 C 0 km/h
847 15-03-2008 00:00:00 9.33 C 5.42 g/m*3 9.33 C 0 km/h
848 16-03-2008 00:00:00 9.8675 C 6.68 g/m*3 9.87 C 0 km/h
849 17-03-2008 00:00:00 5.94583 C 3.99 g/m*3 5.95 C 0 km/h
850 18-03-2008 00:00:00 4.26083 C 3.07 g/m*3 4.26 C 0 km/h
Sensor: Nr:Datum:Temp:Abs-Feuchte:Windchill:Wind:
Aussen-T/F 851 19-03-2008 00:00:00 3.37083 C 3.9 g/m*3 3.37 C 0 km/h
852 20-03-2008 00:00:00 3.89083 C 4.07 g/m*3 3.89 C 0 km/h
853 21-03-2008 00:00:00 3.9975 C 4.22 g/m*3 4 C 0 km/h
854 22-03-2008 00:00:00 2.82917 C 4.71 g/m*3 2.83 C 0 km/h
855 23-03-2008 00:00:00 1.56639 C 2.31 g/m*3 1.57 C 0 km/h
856 24-03-2008 00:00:00 -0.00917 C 3.2 g/m*3 -0.01 C 0 km/h
857 25-03-2008 00:00:00 1.51333 C 3.09 g/m*3 1.51 C 0 km/h
858 26-03-2008 00:00:00 2.39667 C 4.29 g/m*3 2.4 C 0 km/h
859 27-03-2008 00:00:00 5.29417 C 5.44 g/m*3 5.29 C 0 km/h
860 28-03-2008 00:00:00 8.15333 C 4.14 g/m*3 8.15 C 0 km/h
861 29-03-2008 00:00:00 9.55083 C 3.95 g/m*3 9.55 C 0 km/h
862 30-03-2008 00:00:00 13.03217 C 4.01 g/m*3 13.03 C 0 km/h
863 31-03-2008 00:00:00 11.98333 C 5.6 g/m*3 11.98 C 0 km/h
864 01-04-2008 00:00:00 10.06833 C 5.37 g/m*3 10.07 C 0 km/h
865 02-04-2008 00:00:00 9.77417 C 5.52 g/m*3 9.77 C 0 km/h
866 03-04-2008 00:00:00 7.48 C 5.75 g/m*3 7.48 C 0 km/h
867 04-04-2008 00:00:00 9.15583 C 5.79 g/m*3 9.16 C 0 km/h
868 05-04-2008 00:00:00 7.49076 C 6.73 g/m*3 7.49 C 0 km/h
869 06-04-2008 00:00:00 3.825 C 5.64 g/m*3 3.83 C 0 km/h
870 07-04-2008 00:00:00 1.36917 C 4.88 g/m*3 1.37 C 0 km/h
871 08-04-2008 00:00:00 3.57833 C 4.72 g/m*3 3.58 C 0 km/h
872 09-04-2008 00:00:00 5.82833 C 5.5 g/m*3 5.83 C 0 km/h
873 10-04-2008 00:00:00 8.76917 C 5.74 g/m*3 8.77 C 0 km/h
874 11-04-2008 00:00:00 8.235 C 6.34 g/m*3 8.24 C 0 km/h
875 12-04-2008 00:00:00 8.02 C 5.41 g/m*3 8.02 C 0 km/h
Sensor: Nr:Datum:Temp:Abs-Feuchte:Windchill:Wind:
Aussen-T/F 876 13-04-2008 00:00:00 9.70833 C 6.56 g/m*3 9.71 C 0 km/h
877 14-04-2008 00:00:00 7.63083 C 6.9 g/m*3 7.63 C 0 km/h
878 15-04-2008 00:00:00 6.56083 C 5.99 g/m*3 6.56 C 0 km/h
879 16-04-2008 00:00:00 6.30083 C 4.78 g/m*3 6.3 C 0 km/h
880 17-04-2008 00:00:00 6.47227 C 4.04 g/m*3 6.47 C 0 km/h
881 18-04-2008 00:00:00 9.94 C 4.58 g/m*3 9.94 C 0 km/h
882 19-04-2008 00:00:00 8.41667 C 6.18 g/m*3 8.42 C 0 km/h
883 20-04-2008 00:00:00 12.42417 C 7.14 g/m*3 12.42 C 0 km/h
884 21-04-2008 00:00:00 12.98833 C 6.29 g/m*3 12.99 C 0 km/h
885 22-04-2008 00:00:00 12.95917 C 5.98 g/m*3 12.96 C 0 km/h
886 23-04-2008 00:00:00 13.95083 C 6.27 g/m*3 13.95 C 0 km/h
887 24-04-2008 00:00:00 15.095 C 7.14 g/m*3 15.1 C 0 km/h
888 25-04-2008 00:00:00 12.67583 C 6.12 g/m*3 12.68 C 0 km/h
889 26-04-2008 00:00:00 14.51833 C 6.16 g/m*3 14.52 C 0 km/h
890 27-04-2008 00:00:00 15.87667 C 5.79 g/m*3 15.88 C 0 km/h
891 28-04-2008 00:00:00 13.4125 C 8.14 g/m*3 13.41 C 0 km/h
892 29-04-2008 00:00:00 13.07667 C 6.39 g/m*3 13.08 C 0 km/h
893 30-04-2008 00:00:00 13.76639 C 5.33 g/m*3 13.77 C 0 km/h
894 01-05-2008 00:00:00 11.62583 C 5.8 g/m*3 11.63 C 0 km/h
895 02-05-2008 00:00:00 12.97583 C 6.28 g/m*3 12.98 C 0 km/h
896 03-05-2008 00:00:00 14.47667 C 6.5 g/m*3 14.48 C 0 km/h
897 04-05-2008 00:00:00 17.15667 C 5.91 g/m*3 17.16 C 0 km/h
898 05-05-2008 00:00:00 16.51 C 5.51 g/m*3 16.51 C 0 km/h
899 06-05-2008 00:00:00 18.36833 C 7.67 g/m*3 18.37 C 0 km/h
900 07-05-2008 00:00:00 19.48083 C 7 g/m*3 19.48 C 0 km/h
Sensor: Nr:Datum:Temp:Abs-Feuchte:Windchill:Wind:
Aussen-T/F 901 08-05-2008 00:00:00 19.40583 C 6.98 g/m*3 19.41 C 0 km/h
902 09-05-2008 00:00:00 20.20083 C 7.05 g/m*3 20.2 C 0 km/h
903 10-05-2008 00:00:00 21.22917 C 7.16 g/m*3 21.23 C 0 km/h
904 11-05-2008 00:00:00 21.15714 C 6.43 g/m*3 21.16 C 0 km/h
905 12-05-2008 00:00:00 21.02017 C 6.74 g/m*3 21.02 C 0 km/h
906 13-05-2008 00:00:00 21.3175 C 7.09 g/m*3 21.32 C 0 km/h
907 14-05-2008 00:00:00 21.27167 C 7.79 g/m*3 21.27 C 0 km/h
908 15-05-2008 00:00:00 18.93333 C 8.92 g/m*3 18.93 C 0 km/h
909 16-05-2008 00:00:00 18.3725 C 9.69 g/m*3 18.37 C 0 km/h
910 17-05-2008 00:00:00 17.11167 C 10.03 g/m*3 17.11 C 0 km/h
911 18-05-2008 00:00:00 14.09583 C 8.38 g/m*3 14.1 C 0 km/h
912 19-05-2008 00:00:00 14.61833 C 5.61 g/m*3 14.62 C 0 km/h
913 20-05-2008 00:00:00 15.59417 C 4.92 g/m*3 15.59 C 0 km/h
914 21-05-2008 00:00:00 16.93833 C 4.74 g/m*3 16.94 C 0 km/h
915 22-05-2008 00:00:00 18.32417 C 5.49 g/m*3 18.32 C 0 km/h
916 23-05-2008 00:00:00 19.045 C 6.46 g/m*3 19.05 C 0 km/h
917 24-05-2008 00:00:00 18.23 C 7.82 g/m*3 18.23 C 0 km/h
918 25-05-2008 00:00:00 21.65462 C 9.39 g/m*3 21.65 C 0 km/h
919 26-05-2008 00:00:00 21.2775 C 11.27 g/m*3 21.28 C 0 km/h
920 27-05-2008 00:00:00 22.17167 C 12.27 g/m*3 22.17 C 0 km/h
921 28-05-2008 00:00:00 23.79417 C 10.23 g/m*3 23.79 C 0 km/h
922 29-05-2008 00:00:00 23.08917 C 11.47 g/m*3 23.09 C 0 km/h
923 30-05-2008 00:00:00 20.37 C 13.32 g/m*3 20.37 C 0 km/h
924 31-05-2008 00:00:00 17.68917 C 12.05 g/m*3 17.69 C 0 km/h
925 01-06-2008 00:00:00 21.38917 C 11.64 g/m*3 21.39 C 0 km/h
Sensor: Nr:Datum:Temp:Abs-Feuchte:Windchill:Wind:
Aussen-T/F 926 02-06-2008 00:00:00 23.66833 C 12.72 g/m*3 23.67 C 0 km/h
927 03-06-2008 00:00:00 21.2825 C 11.09 g/m*3 21.28 C 0 km/h
928 04-06-2008 00:00:00 19.19833 C 11.48 g/m*3 19.2 C 0 km/h
929 05-06-2008 00:00:00 20.67731 C 12.57 g/m*3 20.68 C 0 km/h
930 06-06-2008 00:00:00 21.07333 C 10.91 g/m*3 21.07 C 0 km/h
931 07-06-2008 00:00:00 19.84417 C 10.51 g/m*3 19.84 C 0 km/h
932 08-06-2008 00:00:00 20.63167 C 10.52 g/m*3 20.63 C 0 km/h
933 09-06-2008 00:00:00 22.875 C 10.01 g/m*3 22.88 C 0 km/h
934 10-06-2008 00:00:00 23.51583 C 9.23 g/m*3 23.52 C 0 km/h
935 11-06-2008 00:00:00 18.4725 C 7.23 g/m*3 18.47 C 0 km/h
936 12-06-2008 00:00:00 12.7425 C 7.69 g/m*3 12.74 C 0 km/h
937 13-06-2008 00:00:00 13.67167 C 7.09 g/m*3 13.67 C 0 km/h
938 14-06-2008 00:00:00 13.75917 C 7.2 g/m*3 13.76 C 0 km/h
939 15-06-2008 00:00:00 13.75333 C 8.27 g/m*3 13.75 C 0 km/h
940 16-06-2008 00:00:00 16.2275 C 7.7 g/m*3 16.23 C 0 km/h
941 17-06-2008 00:00:00 17.34333 C 7.29 g/m*3 17.34 C 0 km/h
942 18-06-2008 00:00:00 20.30583 C 7.89 g/m*3 20.31 C 0 km/h
943 19-06-2008 00:00:00 20.67417 C 8.05 g/m*3 20.67 C 0 km/h
944 20-06-2008 00:00:00 18.32 C 8.63 g/m*3 18.32 C 0 km/h
945 21-06-2008 00:00:00 23.24706 C 9.11 g/m*3 23.25 C 0 km/h
946 22-06-2008 00:00:00 24.30833 C 11.76 g/m*3 24.31 C 0 km/h
947 23-06-2008 00:00:00 22.40417 C 8.41 g/m*3 22.4 C 0 km/h
948 24-06-2008 00:00:00 23.6325 C 8.33 g/m*3 23.63 C 0 km/h
949 25-06-2008 00:00:00 22.66833 C 12.11 g/m*3 22.67 C 0 km/h
950 26-06-2008 00:00:00 20.39833 C 8.44 g/m*3 20.4 C 0 km/h
Sensor: Nr:Datum:Temp:Abs-Feuchte:Windchill:Wind:
Aussen-T/F 951 27-06-2008 00:00:00 18.72167 C 8.67 g/m*3 18.72 C 0 km/h
952 28-06-2008 00:00:00 21.21 C 9.93 g/m*3 21.21 C 0 km/h
953 29-06-2008 00:00:00 22.68667 C 9.85 g/m*3 22.69 C 0 km/h
954 30-06-2008 00:00:00 22.95083 C 8.73 g/m*3 22.95 C 0 km/h
955 01-07-2008 00:00:00 24.35583 C 9.2 g/m*3 24.36 C 0 km/h
956 02-07-2008 00:00:00 26.47583 C 10.39 g/m*3 26.48 C 0 km/h
957 03-07-2008 00:00:00 20.18992 C 12.77 g/m*3 20.19 C 0 km/h
958 04-07-2008 00:00:00 19.38083 C 9.22 g/m*3 19.38 C 0 km/h
959 05-07-2008 00:00:00 21.0575 C 8.87 g/m*3 21.06 C 0 km/h
960 06-07-2008 00:00:00 21.2225 C 8.99 g/m*3 21.22 C 0 km/h
961 07-07-2008 00:00:00 18.24917 C 8.13 g/m*3 18.25 C 0 km/h
962 08-07-2008 00:00:00 17.2125 C 8.69 g/m*3 17.21 C 0 km/h
963 09-07-2008 00:00:00 17.0525 C 8.83 g/m*3 17.05 C 0 km/h
964 10-07-2008 00:00:00 22.32833 C 10.77 g/m*3 22.33 C 0 km/h
965 11-07-2008 00:00:00 20.48167 C 11.17 g/m*3 20.48 C 0 km/h
966 12-07-2008 00:00:00 17.645 C 9.92 g/m*3 17.65 C 0 km/h
967 13-07-2008 00:00:00 17.8375 C 8.02 g/m*3 17.84 C 0 km/h
968 14-07-2008 00:00:00 18.38 C 7.76 g/m*3 18.38 C 0 km/h
969 15-07-2008 00:00:00 19.61978 C 8.34 g/m*3 19.62 C 0 km/h
970 16-07-2008 00:00:00 20.38298 C 10.82 g/m*3 20.38 C 0 km/h
971 17-07-2008 00:00:00 17.22917 C 8.94 g/m*3 17.23 C 0 km/h
972 18-07-2008 00:00:00 16.58125 C 9.74 g/m*3 16.58 C 0 km/h
973 19-07-2008 00:00:00 19.61667 C 9.94 g/m*3 19.62 C 0 km/h
974 20-07-2008 00:00:00 15.48542 C 9.13 g/m*3 15.49 C 0 km/h
975 21-07-2008 00:00:00 12.62917 C 8.41 g/m*3 12.63 C 0 km/h
Sensor: Nr:Datum:Temp:Abs-Feuchte:Windchill:Wind:
Aussen-T/F 976 22-07-2008 00:00:00 14.56042 C 9.4 g/m*3 14.56 C 0 km/h
977 23-07-2008 00:00:00 18.94375 C 9.57 g/m*3 18.94 C 0 km/h
978 24-07-2008 00:00:00 22.13958 C 9.31 g/m*3 22.14 C 0 km/h
979 25-07-2008 00:00:00 24.55625 C 9.56 g/m*3 24.56 C 0 km/h
980 26-07-2008 00:00:00 23.54792 C 12.42 g/m*3 23.55 C 0 km/h
981 27-07-2008 00:00:00 23.20625 C 13.92 g/m*3 23.21 C 0 km/h
982 28-07-2008 00:00:00 25.10833 C 12.45 g/m*3 25.11 C 0 km/h
983 29-07-2008 00:00:00 24.49792 C 12.1 g/m*3 24.5 C 0 km/h
984 30-07-2008 00:00:00 23.67292 C 12.74 g/m*3 23.67 C 0 km/h
985 31-07-2008 00:00:00 24.69792 C 13.38 g/m*3 24.7 C 0 km/h
986 01-08-2008 00:00:00 24.97917 C 10.83 g/m*3 24.98 C 0 km/h
987 02-08-2008 00:00:00 21.29792 C 9.43 g/m*3 21.3 C 0 km/h
988 03-08-2008 00:00:00 23.42561 C 10.97 g/m*3 23.43 C 0 km/h
989 04-08-2008 00:00:00 21.85083 C 10.01 g/m*3 21.85 C 0 km/h
990 05-08-2008 00:00:00 20.3125 C 8.72 g/m*3 20.31 C 0 km/h
991 06-08-2008 00:00:00 24.05417 C 10.21 g/m*3 24.05 C 0 km/h
992 07-08-2008 00:00:00 24.29583 C 11.12 g/m*3 24.3 C 0 km/h
993 08-08-2008 00:00:00 18.50948 C 11.78 g/m*3 18.51 C 0 km/h
994 09-08-2008 00:00:00 19.32 C 9.06 g/m*3 19.32 C 0 km/h
995 10-08-2008 00:00:00 20.1 C 9.41 g/m*3 20.1 C 0 km/h
996 11-08-2008 00:00:00 20.59748 C 9.44 g/m*3 20.6 C 0 km/h
997 12-08-2008 00:00:00 18.91833 C 12.54 g/m*3 18.92 C 0 km/h
998 13-08-2008 00:00:00 18.3525 C 8.74 g/m*3 18.35 C 0 km/h
999 14-08-2008 00:00:00 19.14917 C 7.79 g/m*3 19.15 C 0 km/h
1000 15-08-2008 00:00:00 18.3625 C 8.19 g/m*3 18.36 C 0 km/h
Sensor: Nr:Datum:Temp:Abs-Feuchte:Windchill:Wind:
Aussen-T/F 1001 16-08-2008 00:00:00 18.89 C 8.44 g/m*3 18.89 C 0 km/h
1002 17-08-2008 00:00:00 19.10252 C 8.4 g/m*3 19.1 C 0 km/h
1003 18-08-2008 00:00:00 21.21 C 10.7 g/m*3 21.21 C 0 km/h
1004 19-08-2008 00:00:00 20.7925 C 9.67 g/m*3 20.79 C 0 km/h
1005 20-08-2008 00:00:00 18.82 C 9.37 g/m*3 18.82 C 0 km/h
1006 21-08-2008 00:00:00 19.6375 C 8.99 g/m*3 19.64 C 0 km/h
1007 22-08-2008 00:00:00 18.45333 C 11.1 g/m*3 18.45 C 0 km/h
1008 23-08-2008 00:00:00 14.95083 C 9.15 g/m*3 14.95 C 0 km/h
1009 24-08-2008 00:00:00 16.59333 C 8.67 g/m*3 16.59 C 0 km/h
1010 25-08-2008 00:00:00 17.43583 C 10.93 g/m*3 17.44 C 0 km/h
1011 26-08-2008 00:00:00 19.2725 C 10.13 g/m*3 19.27 C 0 km/h
1012 27-08-2008 00:00:00 19.89833 C 10.62 g/m*3 19.9 C 0 km/h
1013 28-08-2008 00:00:00 20.35417 C 9.37 g/m*3 20.35 C 0 km/h
1014 29-08-2008 00:00:00 20.84454 C 9.74 g/m*3 20.84 C 0 km/h
1015 30-08-2008 00:00:00 21.35167 C 10.94 g/m*3 21.35 C 0 km/h
1016 31-08-2008 00:00:00 22.25917 C 10.49 g/m*3 22.26 C 0 km/h
1017 01-09-2008 00:00:00 20.93917 C 10.36 g/m*3 20.94 C 0 km/h
1018 02-09-2008 00:00:00 19.11333 C 9.31 g/m*3 19.11 C 0 km/h
1019 03-09-2008 00:00:00 15.21083 C 10.42 g/m*3 15.21 C 0 km/h
1020 04-09-2008 00:00:00 13.7025 C 7.94 g/m*3 13.7 C 0 km/h
1021 05-09-2008 00:00:00 16.9775 C 10.5 g/m*3 16.98 C 0 km/h
1022 06-09-2008 00:00:00 17.5625 C 11.38 g/m*3 17.56 C 0 km/h
1023 07-09-2008 00:00:00 16.83583 C 9.34 g/m*3 16.84 C 0 km/h
1024 08-09-2008 00:00:00 17.9741 C 8.43 g/m*3 17.97 C 0 km/h
1025 09-09-2008 00:00:00 18.12014 C 9.04 g/m*3 18.12 C 0 km/h
Sensor: Nr:Datum:Temp:Abs-Feuchte:Windchill:Wind:
Aussen-T/F 1026 10-09-2008 00:00:00 21.10243 C 10.72 g/m*3 21.1 C 0 km/h
1027 11-09-2008 00:00:00 19.94479 C 12.52 g/m*3 19.94 C 0 km/h
1028 12-09-2008 00:00:00 16.69236 C 12.91 g/m*3 16.69 C 0 km/h
1029 13-09-2008 00:00:00 12.63937 C 10.07 g/m*3 12.64 C 0 km/h
1030 14-09-2008 00:00:00 11.66215 C 6.19 g/m*3 11.66 C 0 km/h
1031 15-09-2008 00:00:00 10.27153 C 7.08 g/m*3 10.27 C 0 km/h
1032 16-09-2008 00:00:00 11.32014 C 7.11 g/m*3 11.32 C 0 km/h
1033 17-09-2008 00:00:00 11.34948 C 5.77 g/m*3 11.35 C 0 km/h
1034 18-09-2008 00:00:00 10.63264 C 5.3 g/m*3 10.63 C 0 km/h
1035 19-09-2008 00:00:00 10.48333 C 6.14 g/m*3 10.48 C 0 km/h
1036 20-09-2008 00:00:00 11.00556 C 6.26 g/m*3 11.01 C 0 km/h
1037 21-09-2008 00:00:00 11.67222 C 6.89 g/m*3 11.67 C 0 km/h
1038 22-09-2008 00:00:00 12.57108 C 7.54 g/m*3 12.57 C 0 km/h
1039 23-09-2008 00:00:00 12.21111 C 8.35 g/m*3 12.21 C 0 km/h
1040 24-09-2008 00:00:00 13.30799 C 9.32 g/m*3 13.31 C 0 km/h
1041 25-09-2008 00:00:00 12.56736 C 7.77 g/m*3 12.57 C 0 km/h
1042 26-09-2008 00:00:00 12.00521 C 7.09 g/m*3 12.01 C 0 km/h
1043 27-09-2008 00:00:00 11.93693 C 7.15 g/m*3 11.94 C 0 km/h
1044 28-09-2008 00:00:00 11.96493 C 7.21 g/m*3 11.96 C 0 km/h
1045 29-09-2008 00:00:00 11.47396 C 7.33 g/m*3 11.47 C 0 km/h
1046 30-09-2008 00:00:00 10.38611 C 7.67 g/m*3 10.39 C 0 km/h
1047 01-10-2008 00:00:00 13.07222 C 8.43 g/m*3 13.07 C 0 km/h
1048 02-10-2008 00:00:00 10.70244 C 6.41 g/m*3 10.7 C 0 km/h
1049 03-10-2008 00:00:00 8.94063 C 6.04 g/m*3 8.94 C 0 km/h
1050 04-10-2008 00:00:00 9.76632 C 5.66 g/m*3 9.77 C 0 km/h
Sensor: Nr:Datum:Temp:Abs-Feuchte:Windchill:Wind:
Aussen-T/F 1051 05-10-2008 00:00:00 11.69062 C 6.1 g/m*3 11.69 C 0 km/h
1052 06-10-2008 00:00:00 14.79306 C 10.16 g/m*3 14.79 C 0 km/h
1053 07-10-2008 00:00:00 15.17875 C 10.24 g/m*3 15.18 C 0 km/h
1054 08-10-2008 00:00:00 13.26389 C 10.6 g/m*3 13.26 C 0 km/h
1055 09-10-2008 00:00:00 13.20937 C 8.82 g/m*3 13.21 C 0 km/h
1056 10-10-2008 00:00:00 13.01806 C 8.66 g/m*3 13.02 C 0 km/h
1057 11-10-2008 00:00:00 13.2125 C 9 g/m*3 13.21 C 0 km/h
1058 12-10-2008 00:00:00 15.40729 C 9.68 g/m*3 15.41 C 0 km/h
1059 13-10-2008 00:00:00 14.40976 C 9.47 g/m*3 14.41 C 0 km/h
1060 14-10-2008 00:00:00 15.63438 C 9.35 g/m*3 15.63 C 0 km/h
1061 15-10-2008 00:00:00 13.57361 C 8.88 g/m*3 13.57 C 0 km/h
1062 16-10-2008 00:00:00 11.59444 C 8.43 g/m*3 11.59 C 0 km/h
1063 17-10-2008 00:00:00 8.00313 C 6.15 g/m*3 8 C 0 km/h
1064 18-10-2008 00:00:00 7.10488 C 5.92 g/m*3 7.1 C 0 km/h
1065 19-10-2008 00:00:00 8.10521 C 6.25 g/m*3 8.11 C 0 km/h
1066 20-10-2008 00:00:00 9.83646 C 7.21 g/m*3 9.84 C 0 km/h
1067 21-10-2008 00:00:00 13.12986 C 9.32 g/m*3 13.13 C 0 km/h
1068 22-10-2008 00:00:00 9.36528 C 7.49 g/m*3 9.37 C 0 km/h
1069 23-10-2008 00:00:00 9.2115 C 6.5 g/m*3 9.21 C 0 km/h
1070 24-10-2008 00:00:00 7.4434 C 6.07 g/m*3 7.44 C 0 km/h
1071 25-10-2008 00:00:00 10.48151 C 7.39 g/m*3 10.48 C 0 km/h
1072 26-10-2008 00:00:00 10.725 C 6.55 g/m*3 10.73 C 0 km/h
1073 27-10-2008 00:00:00 10.21724 C 7.98 g/m*3 10.22 C 0 km/h
1074 28-10-2008 00:00:00 6.92456 C 6.29 g/m*3 6.92 C 0 km/h
1075 29-10-2008 00:00:00 5.45 C 5.63 g/m*3 5.45 C 0 km/h
Sensor: Nr:Datum:Temp:Abs-Feuchte:Windchill:Wind:
Aussen-T/F 1076 30-10-2008 00:00:00 4.78947 C 6 g/m*3 4.79 C 0 km/h
1077 31-10-2008 00:00:00 5.97414 C 6.34 g/m*3 5.97 C 0 km/h
1078 01-11-2008 00:00:00 7.97414 C 7.15 g/m*3 7.97 C 0 km/h
1079 02-11-2008 00:00:00 9.98772 C 7.86 g/m*3 9.99 C 0 km/h
1080 03-11-2008 00:00:00 9.82241 C 7.83 g/m*3 9.82 C 0 km/h
1081 04-11-2008 00:00:00 9.00351 C 7.82 g/m*3 9 C 0 km/h
1082 05-11-2008 00:00:00 9.79828 C 7.68 g/m*3 9.8 C 0 km/h
1083 06-11-2008 00:00:00 10.54483 C 7.37 g/m*3 10.54 C 0 km/h
1084 07-11-2008 00:00:00 10.79123 C 7.22 g/m*3 10.79 C 0 km/h
1085 08-11-2008 00:00:00 8.24828 C 6.77 g/m*3 8.25 C 0 km/h
1086 09-11-2008 00:00:00 8.89583 C 7.31 g/m*3 8.9 C 0 km/h
1087 10-11-2008 00:00:00 13.98833 C 7.91 g/m*3 13.99 C 0 km/h
1088 11-11-2008 00:00:00 12.73917 C 6.46 g/m*3 12.74 C 0 km/h
1089 12-11-2008 00:00:00 8.5175 C 6.56 g/m*3 8.52 C 0 km/h
1090 13-11-2008 00:00:00 6.40667 C 6.06 g/m*3 6.41 C 0 km/h
1091 14-11-2008 00:00:00 5.60833 C 5.47 g/m*3 5.61 C 0 km/h
1092 15-11-2008 00:00:00 9.82083 C 7.04 g/m*3 9.82 C 0 km/h
1093 16-11-2008 00:00:00 9.9375 C 7.83 g/m*3 9.94 C 0 km/h

Maximal/Minimal-Werte vom 17.04.2019 - 19.05.2019

Sensor Min Max Avg
Temp
(Aussen-T/F)
2.2 °C
13-05-2019  06:50:00
26.6 °C
24-04-2019  17:05:00
11.51 °C

Die Daten stammen von einer Davis Vantage Pro 2 Wetter-Station und werden unter Linux mit der Software wview2wettercgi und aufbereitet. Alle Angaben erfolgen ohne Gewähr für ihre Vollständigkeit oder Richtigkeit.
Kontakt: Rainer Krienke krienke@uni-koblenz.de . Meine Webseiten an der Uni Koblenz oder privat.
Version: $Revision: 0.78 $